GEFSNE_prec_meanprecacc_006.txt.gz
Total_Precipitation_Accumulation
0.02 0.03 0.03 0.04 0.04 0.05 0.05 0.05 0.06 0.05 0.03 0.01 0.02 0.03 0.06 0.13 0.23 0.25 0.21 0.10 0.03 0.01 0.00 0.00 0.00 0.00 0.00 0.00 0.00 0.00 0.01 0.03 0.08 0.13 0.16 0.18 0.18 0.16
0.04 0.04 0.04 0.04 0.04 0.04 0.05 0.06 0.09 0.11 0.08 0.03 0.02 0.04 0.08 0.14 0.26 0.27 0.24 0.15 0.07 0.03 0.01 0.00 0.00 0.00 0.00 0.00 0.00 0.01 0.03 0.06 0.12 0.17 0.23 0.26 0.24 0.22
0.03 0.03 0.02 0.02 0.03 0.04 0.05 0.06 0.07 0.09 0.08 0.04 0.03 0.04 0.08 0.14 0.21 0.20 0.18 0.14 0.11 0.09 0.04 0.02 0.02 0.01 0.01 0.00 0.01 0.04 0.08 0.13 0.18 0.22 0.30 0.37 0.37 0.28
0.02 0.03 0.03 0.03 0.03 0.03 0.04 0.05 0.06 0.08 0.09 0.06 0.03 0.02 0.04 0.10 0.13 0.13 0.13 0.13 0.14 0.15 0.09 0.04 0.02 0.02 0.06 0.04 0.02 0.07 0.14 0.24 0.31 0.34 0.39 0.41 0.38 0.28
0.03 0.04 0.05 0.05 0.03 0.03 0.04 0.05 0.06 0.07 0.08 0.07 0.04 0.03 0.07 0.14 0.18 0.17 0.13 0.15 0.16 0.14 0.11 0.06 0.03 0.05 0.29 0.36 0.15 0.12 0.18 0.30 0.37 0.40 0.45 0.43 0.34 0.22
0.03 0.05 0.06 0.05 0.04 0.05 0.06 0.07 0.08 0.08 0.07 0.07 0.05 0.04 0.08 0.13 0.14 0.16 0.15 0.13 0.14 0.09 0.09 0.08 0.07 0.16 0.53 1.04 0.53 0.26 0.23 0.29 0.34 0.37 0.37 0.31 0.20 0.11
0.03 0.05 0.05 0.04 0.06 0.06 0.05 0.05 0.07 0.08 0.08 0.07 0.05 0.05 0.06 0.10 0.11 0.11 0.10 0.14 0.14 0.10 0.14 0.13 0.23 0.45 0.73 1.26 1.01 0.60 0.47 0.40 0.33 0.31 0.27 0.21 0.13 0.08
0.03 0.04 0.02 0.02 0.02 0.02 0.03 0.05 0.06 0.06 0.07 0.07 0.06 0.06 0.06 0.07 0.08 0.09 0.08 0.13 0.11 0.08 0.09 0.14 0.34 0.62 0.85 1.08 1.07 0.83 0.71 0.57 0.45 0.43 0.40 0.28 0.18 0.10
0.04 0.02 0.01 0.01 0.01 0.01 0.02 0.05 0.08 0.09 0.08 0.07 0.06 0.05 0.05 0.05 0.06 0.10 0.09 0.10 0.11 0.07 0.05 0.09 0.26 0.53 0.69 0.83 0.89 0.82 0.75 0.64 0.54 0.53 0.50 0.32 0.16 0.07
0.02 0.01 0.01 0.01 0.01 0.02 0.05 0.10 0.10 0.09 0.09 0.10 0.08 0.05 0.04 0.04 0.04 0.05 0.06 0.10 0.09 0.05 0.03 0.08 0.22 0.38 0.47 0.53 0.59 0.59 0.57 0.52 0.44 0.40 0.33 0.18 0.07 0.03
0.01 0.01 0.01 0.01 0.01 0.04 0.08 0.12 0.13 0.15 0.21 0.26 0.19 0.11 0.12 0.10 0.05 0.04 0.05 0.09 0.09 0.05 0.03 0.06 0.14 0.23 0.27 0.27 0.28 0.27 0.27 0.24 0.19 0.16 0.11 0.05 0.01 0.00
0.01 0.01 0.01 0.02 0.03 0.05 0.09 0.13 0.15 0.18 0.25 0.31 0.18 0.12 0.11 0.12 0.11 0.05 0.07 0.11 0.09 0.03 0.02 0.04 0.06 0.09 0.13 0.11 0.08 0.08 0.08 0.07 0.05 0.04 0.03 0.01 0.00 0.00
0.01 0.01 0.01 0.04 0.04 0.05 0.09 0.13 0.18 0.18 0.19 0.23 0.14 0.10 0.10 0.09 0.08 0.09 0.09 0.07 0.03 0.01 0.02 0.03 0.03 0.04 0.04 0.05 0.03 0.02 0.02 0.02 0.01 0.01 0.01 0.00 0.00 0.00
0.01 0.01 0.03 0.05 0.05 0.06 0.09 0.14 0.18 0.19 0.15 0.15 0.13 0.11 0.09 0.09 0.09 0.07 0.05 0.03 0.01 0.01 0.02 0.02 0.02 0.04 0.03 0.02 0.02 0.02 0.01 0.00 0.00 0.00 0.00 0.00 0.00 0.00
0.01 0.04 0.06 0.05 0.06 0.09 0.13 0.17 0.19 0.17 0.14 0.14 0.16 0.13 0.07 0.06 0.06 0.05 0.03 0.01 0.01 0.01 0.01 0.01 0.01 0.03 0.03 0.01 0.01 0.01 0.01 0.00 0.00 0.00 0.00 0.00 0.00 0.00
0.01 0.06 0.08 0.06 0.08 0.14 0.18 0.19 0.20 0.20 0.19 0.20 0.19 0.13 0.07 0.06 0.05 0.03 0.02 0.01 0.02 0.03 0.02 0.01 0.01 0.01 0.01 0.01 0.00 0.01 0.00 0.01 0.01 0.00 0.00 0.00 0.00 0.00
0.02 0.04 0.03 0.03 0.06 0.12 0.18 0.20 0.19 0.21 0.24 0.24 0.21 0.16 0.10 0.07 0.05 0.03 0.02 0.02 0.02 0.03 0.03 0.02 0.01 0.00 0.00 0.00 0.00 0.00 0.00 0.00 0.00 0.00 0.00 0.00 0.00 0.00
0.02 0.04 0.05 0.05 0.06 0.10 0.17 0.22 0.21 0.19 0.22 0.24 0.23 0.19 0.14 0.10 0.07 0.05 0.03 0.03 0.03 0.02 0.02 0.01 0.01 0.00 0.00 0.00 0.00 0.00 0.00 0.00 0.00 0.00 0.00 0.00 0.00 0.00
0.03 0.05 0.09 0.09 0.09 0.11 0.14 0.17 0.19 0.18 0.17 0.17 0.18 0.18 0.15 0.10 0.07 0.06 0.04 0.03 0.02 0.01 0.01 0.01 0.00 0.00 0.00 0.00 0.00 0.00 0.00 0.00 0.00 0.00 0.00 0.00 0.00 0.00
0.04 0.07 0.09 0.09 0.09 0.11 0.12 0.11 0.12 0.13 0.12 0.11 0.10 0.10 0.10 0.07 0.06 0.04 0.02 0.01 0.01 0.01 0.00 0.00 0.00 0.00 0.00 0.00 0.00 0.00 0.00 0.01 0.00 0.00 0.00 0.00 0.00 0.00
0.04 0.06 0.09 0.09 0.07 0.07 0.08 0.08 0.08 0.08 0.08 0.07 0.07 0.07 0.06 0.05 0.04 0.02 0.01 0.01 0.01 0.01 0.01 0.00 0.00 0.00 0.00 0.00 0.00 0.00 0.00 0.00 0.00 0.00 0.00 0.00 0.00 0.00
0.03 0.06 0.08 0.09 0.07 0.05 0.04 0.04 0.04 0.04 0.04 0.04 0.04 0.05 0.05 0.05 0.03 0.02 0.02 0.01 0.01 0.00 0.00 0.00 0.00 0.00 0.00 0.00 0.00 0.00 0.00 0.00 0.00 0.00 0.00 0.00 0.00 0.00
0.02 0.03 0.06 0.07 0.08 0.08 0.06 0.05 0.04 0.04 0.04 0.03 0.03 0.03 0.04 0.04 0.03 0.03 0.02 0.01 0.00 0.00 0.00 0.00 0.00 0.00 0.00 0.00 0.00 0.00 0.00 0.00 0.00 0.00 0.00 0.00 0.00 0.00

GEFSNE_prec_meanprecacc_012.txt.gz
Total_Precipitation_Accumulation
0.03 0.03 0.04 0.05 0.06 0.07 0.08 0.10 0.12 0.10 0.06 0.02 0.02 0.03 0.06 0.13 0.23 0.26 0.24 0.15 0.09 0.04 0.02 0.01 0.00 0.00 0.00 0.00 0.00 0.00 0.01 0.03 0.09 0.13 0.16 0.18 0.18 0.19
0.05 0.05 0.05 0.05 0.05 0.06 0.07 0.09 0.13 0.17 0.13 0.05 0.02 0.04 0.08 0.14 0.27 0.30 0.32 0.28 0.19 0.10 0.04 0.02 0.01 0.00 0.00 0.00 0.00 0.01 0.03 0.06 0.12 0.17 0.23 0.26 0.25 0.27
0.03 0.03 0.03 0.03 0.04 0.05 0.07 0.08 0.09 0.13 0.13 0.07 0.03 0.04 0.08 0.15 0.22 0.24 0.25 0.23 0.20 0.16 0.07 0.03 0.02 0.01 0.01 0.00 0.01 0.05 0.09 0.13 0.18 0.22 0.30 0.39 0.40 0.36
0.02 0.03 0.03 0.04 0.04 0.04 0.06 0.07 0.08 0.11 0.14 0.10 0.04 0.02 0.04 0.10 0.15 0.16 0.17 0.17 0.17 0.20 0.12 0.06 0.03 0.02 0.06 0.04 0.02 0.07 0.14 0.24 0.31 0.35 0.40 0.45 0.46 0.41
0.03 0.04 0.05 0.05 0.04 0.04 0.06 0.07 0.08 0.10 0.12 0.11 0.06 0.03 0.07 0.15 0.21 0.21 0.18 0.19 0.19 0.17 0.13 0.08 0.04 0.05 0.30 0.37 0.15 0.12 0.18 0.31 0.38 0.42 0.50 0.52 0.46 0.39
0.03 0.05 0.07 0.07 0.06 0.07 0.08 0.08 0.10 0.10 0.09 0.09 0.06 0.04 0.08 0.14 0.18 0.24 0.23 0.18 0.17 0.11 0.12 0.10 0.09 0.18 0.56 1.12 0.60 0.28 0.25 0.30 0.37 0.42 0.47 0.46 0.40 0.33
0.03 0.06 0.07 0.07 0.09 0.08 0.06 0.06 0.08 0.09 0.10 0.10 0.07 0.06 0.08 0.14 0.17 0.17 0.16 0.19 0.17 0.12 0.16 0.16 0.29 0.60 1.10 1.76 1.34 0.72 0.52 0.45 0.40 0.42 0.43 0.43 0.38 0.29
0.04 0.05 0.03 0.02 0.03 0.02 0.03 0.05 0.07 0.09 0.12 0.12 0.10 0.09 0.08 0.11 0.13 0.14 0.13 0.17 0.16 0.10 0.11 0.19 0.47 1.12 1.72 2.09 1.76 1.11 0.86 0.69 0.57 0.60 0.62 0.53 0.40 0.29
0.04 0.03 0.01 0.01 0.01 0.01 0.02 0.05 0.09 0.15 0.17 0.15 0.12 0.08 0.07 0.08 0.10 0.15 0.14 0.15 0.17 0.10 0.07 0.16 0.50 1.21 1.57 1.86 1.71 1.21 1.01 0.86 0.77 0.80 0.80 0.60 0.40 0.27
0.02 0.02 0.02 0.01 0.01 0.02 0.05 0.11 0.13 0.14 0.16 0.16 0.12 0.08 0.07 0.07 0.08 0.10 0.09 0.13 0.13 0.07 0.06 0.18 0.52 1.01 1.16 1.27 1.36 1.12 1.00 0.94 0.90 0.88 0.81 0.60 0.40 0.27
0.01 0.01 0.02 0.01 0.02 0.04 0.08 0.13 0.16 0.22 0.30 0.34 0.27 0.18 0.18 0.16 0.09 0.06 0.07 0.11 0.12 0.07 0.06 0.16 0.40 0.70 0.80 0.84 0.93 0.92 0.89 0.89 0.87 0.85 0.77 0.55 0.37 0.25
0.01 0.01 0.02 0.03 0.04 0.06 0.10 0.16 0.22 0.28 0.39 0.44 0.29 0.22 0.20 0.19 0.16 0.08 0.10 0.16 0.13 0.05 0.05 0.10 0.23 0.38 0.53 0.62 0.60 0.59 0.64 0.70 0.71 0.73 0.65 0.46 0.25 0.12
0.01 0.01 0.02 0.06 0.06 0.07 0.13 0.20 0.29 0.33 0.38 0.41 0.26 0.18 0.17 0.15 0.14 0.15 0.15 0.12 0.06 0.03 0.03 0.06 0.14 0.23 0.27 0.39 0.45 0.42 0.39 0.40 0.42 0.44 0.39 0.27 0.13 0.04
0.02 0.03 0.06 0.10 0.07 0.09 0.17 0.27 0.34 0.37 0.32 0.29 0.22 0.16 0.13 0.14 0.16 0.14 0.09 0.05 0.02 0.02 0.02 0.04 0.11 0.20 0.19 0.18 0.24 0.26 0.23 0.19 0.18 0.16 0.14 0.10 0.06 0.03
0.04 0.11 0.14 0.10 0.10 0.16 0.27 0.36 0.37 0.34 0.29 0.25 0.23 0.18 0.10 0.09 0.10 0.09 0.06 0.02 0.02 0.02 0.02 0.03 0.07 0.14 0.14 0.10 0.10 0.10 0.10 0.09 0.07 0.06 0.05 0.04 0.02 0.01
0.04 0.11 0.13 0.10 0.15 0.25 0.35 0.39 0.39 0.39 0.35 0.30 0.26 0.18 0.12 0.08 0.06 0.04 0.03 0.02 0.03 0.05 0.04 0.03 0.03 0.05 0.07 0.06 0.05 0.05 0.05 0.06 0.06 0.05 0.04 0.03 0.01 0.00
0.05 0.07 0.06 0.07 0.14 0.24 0.34 0.38 0.37 0.39 0.41 0.35 0.28 0.21 0.15 0.10 0.08 0.05 0.04 0.04 0.04 0.05 0.04 0.03 0.03 0.03 0.03 0.04 0.04 0.04 0.04 0.03 0.03 0.02 0.02 0.01 0.01 0.00
0.05 0.07 0.10 0.13 0.17 0.24 0.32 0.39 0.39 0.37 0.38 0.37 0.32 0.26 0.19 0.13 0.11 0.08 0.06 0.06 0.06 0.05 0.04 0.03 0.02 0.02 0.02 0.02 0.01 0.01 0.01 0.01 0.01 0.00 0.00 0.01 0.00 0.00
0.06 0.10 0.17 0.20 0.23 0.27 0.30 0.33 0.38 0.38 0.34 0.32 0.29 0.26 0.20 0.14 0.11 0.10 0.07 0.06 0.05 0.04 0.02 0.01 0.00 0.00 0.00 0.01 0.01 0.00 0.00 0.00 0.00 0.00 0.00 0.00 0.00 0.00
0.08 0.13 0.19 0.22 0.25 0.28 0.29 0.28 0.31 0.33 0.30 0.25 0.21 0.19 0.17 0.14 0.11 0.09 0.05 0.03 0.02 0.01 0.01 0.00 0.00 0.00 0.00 0.00 0.00 0.00 0.00 0.01 0.00 0.00 0.00 0.00 0.00 0.00
0.08 0.13 0.18 0.20 0.20 0.21 0.23 0.23 0.25 0.26 0.24 0.21 0.18 0.16 0.14 0.12 0.09 0.06 0.03 0.01 0.01 0.01 0.01 0.01 0.00 0.00 0.00 0.00 0.00 0.00 0.00 0.00 0.00 0.00 0.00 0.00 0.00 0.00
0.06 0.11 0.16 0.18 0.17 0.15 0.14 0.15 0.16 0.17 0.16 0.14 0.13 0.12 0.11 0.09 0.06 0.04 0.02 0.02 0.01 0.01 0.00 0.00 0.00 0.00 0.00 0.00 0.00 0.00 0.00 0.00 0.00 0.00 0.00 0.00 0.00 0.00
0.05 0.07 0.11 0.15 0.16 0.15 0.12 0.10 0.10 0.11 0.10 0.08 0.07 0.06 0.07 0.06 0.05 0.03 0.02 0.01 0.00 0.00 0.00 0.01 0.01 0.00 0.00 0.00 0.00 0.00 0.00 0.00 0.00 0.00 0.00 0.00 0.00 0.00

GEFSNE_prec_meanprecacc_018.txt.gz
Total_Precipitation_Accumulation
0.03 0.03 0.04 0.05 0.06 0.07 0.08 0.11 0.14 0.13 0.07 0.02 0.02 0.03 0.06 0.13 0.23 0.26 0.24 0.15 0.09 0.05 0.03 0.02 0.01 0.01 0.01 0.01 0.01 0.01 0.02 0.05 0.11 0.15 0.17 0.18 0.18 0.19
0.05 0.05 0.05 0.05 0.05 0.06 0.07 0.09 0.14 0.19 0.16 0.06 0.02 0.04 0.08 0.14 0.27 0.30 0.32 0.29 0.20 0.12 0.07 0.04 0.02 0.02 0.02 0.01 0.01 0.02 0.04 0.07 0.12 0.17 0.24 0.27 0.25 0.27
0.03 0.03 0.03 0.03 0.04 0.05 0.07 0.08 0.10 0.15 0.17 0.08 0.04 0.04 0.08 0.15 0.22 0.24 0.25 0.24 0.21 0.19 0.11 0.07 0.06 0.04 0.02 0.01 0.02 0.05 0.09 0.14 0.18 0.23 0.31 0.39 0.40 0.36
0.02 0.03 0.03 0.04 0.04 0.04 0.06 0.07 0.09 0.13 0.18 0.14 0.06 0.03 0.05 0.10 0.15 0.16 0.17 0.18 0.19 0.23 0.16 0.09 0.06 0.05 0.08 0.05 0.03 0.07 0.14 0.24 0.31 0.35 0.40 0.45 0.46 0.41
0.03 0.04 0.05 0.05 0.04 0.05 0.06 0.08 0.10 0.12 0.15 0.15 0.07 0.04 0.08 0.15 0.21 0.21 0.18 0.20 0.20 0.20 0.16 0.11 0.06 0.07 0.30 0.37 0.15 0.13 0.18 0.31 0.38 0.42 0.50 0.52 0.46 0.39
0.03 0.05 0.07 0.07 0.07 0.08 0.09 0.10 0.12 0.12 0.10 0.10 0.07 0.05 0.09 0.15 0.18 0.25 0.25 0.20 0.19 0.13 0.15 0.12 0.11 0.18 0.57 1.12 0.60 0.28 0.25 0.31 0.37 0.42 0.47 0.46 0.40 0.33
0.03 0.06 0.07 0.07 0.10 0.10 0.09 0.09 0.10 0.11 0.11 0.11 0.09 0.07 0.09 0.14 0.18 0.19 0.20 0.23 0.20 0.14 0.17 0.16 0.29 0.61 1.12 1.80 1.39 0.76 0.54 0.46 0.41 0.42 0.44 0.43 0.38 0.29
0.04 0.05 0.03 0.02 0.03 0.03 0.05 0.07 0.10 0.12 0.14 0.15 0.13 0.11 0.09 0.12 0.16 0.19 0.19 0.22 0.19 0.12 0.12 0.20 0.48 1.19 1.87 2.27 1.92 1.20 0.91 0.71 0.58 0.60 0.62 0.54 0.41 0.30
0.04 0.03 0.01 0.01 0.01 0.01 0.03 0.06 0.10 0.16 0.20 0.22 0.20 0.13 0.11 0.12 0.16 0.21 0.18 0.18 0.20 0.13 0.09 0.17 0.56 1.39 1.82 2.13 1.98 1.35 1.08 0.91 0.80 0.82 0.81 0.61 0.41 0.30
0.02 0.02 0.02 0.01 0.02 0.03 0.05 0.11 0.13 0.15 0.20 0.23 0.21 0.16 0.14 0.14 0.14 0.15 0.13 0.16 0.15 0.09 0.07 0.21 0.63 1.27 1.48 1.55 1.70 1.36 1.12 1.02 0.96 0.92 0.85 0.63 0.44 0.34
0.01 0.01 0.02 0.01 0.03 0.06 0.09 0.14 0.17 0.24 0.37 0.48 0.41 0.30 0.27 0.23 0.14 0.09 0.10 0.14 0.16 0.10 0.07 0.20 0.52 0.94 1.12 1.16 1.23 1.23 1.14 1.09 1.03 0.97 0.85 0.62 0.46 0.38
0.01 0.01 0.02 0.03 0.05 0.07 0.11 0.17 0.25 0.35 0.52 0.64 0.47 0.33 0.27 0.24 0.21 0.12 0.14 0.21 0.19 0.09 0.07 0.15 0.33 0.55 0.79 0.97 0.88 0.79 0.85 0.97 1.01 1.01 0.90 0.65 0.41 0.28
0.01 0.02 0.03 0.08 0.07 0.08 0.15 0.25 0.38 0.47 0.57 0.64 0.44 0.27 0.21 0.17 0.18 0.21 0.20 0.17 0.10 0.05 0.04 0.09 0.23 0.34 0.45 0.66 0.80 0.74 0.64 0.66 0.73 0.86 0.89 0.74 0.46 0.25
0.05 0.07 0.10 0.13 0.09 0.12 0.23 0.38 0.49 0.56 0.53 0.50 0.35 0.23 0.16 0.17 0.19 0.17 0.12 0.06 0.03 0.02 0.03 0.07 0.18 0.30 0.31 0.35 0.55 0.65 0.62 0.60 0.60 0.65 0.69 0.67 0.51 0.39
0.08 0.15 0.17 0.13 0.15 0.23 0.39 0.53 0.56 0.55 0.49 0.39 0.31 0.23 0.13 0.11 0.11 0.10 0.06 0.03 0.02 0.03 0.04 0.06 0.13 0.25 0.26 0.23 0.31 0.39 0.49 0.58 0.57 0.59 0.59 0.54 0.45 0.37
0.06 0.13 0.16 0.16 0.25 0.40 0.53 0.57 0.59 0.60 0.52 0.38 0.30 0.22 0.13 0.09 0.07 0.05 0.04 0.04 0.05 0.08 0.07 0.07 0.11 0.18 0.23 0.21 0.22 0.27 0.31 0.47 0.55 0.54 0.53 0.50 0.45 0.38
0.07 0.09 0.10 0.14 0.27 0.41 0.52 0.55 0.55 0.57 0.53 0.40 0.31 0.23 0.16 0.11 0.09 0.06 0.05 0.06 0.07 0.08 0.09 0.09 0.12 0.16 0.20 0.21 0.22 0.25 0.27 0.32 0.39 0.39 0.36 0.34 0.31 0.26
0.09 0.13 0.17 0.23 0.31 0.41 0.50 0.57 0.55 0.49 0.45 0.40 0.34 0.27 0.20 0.14 0.12 0.11 0.09 0.08 0.09 0.09 0.08 0.08 0.07 0.09 0.12 0.15 0.14 0.14 0.15 0.18 0.21 0.22 0.18 0.15 0.11 0.08
0.11 0.18 0.27 0.33 0.38 0.43 0.46 0.48 0.51 0.48 0.41 0.35 0.31 0.27 0.22 0.16 0.13 0.12 0.10 0.08 0.07 0.06 0.05 0.04 0.03 0.01 0.02 0.06 0.07 0.06 0.06 0.07 0.08 0.08 0.07 0.05 0.03 0.01
0.15 0.24 0.32 0.36 0.40 0.44 0.44 0.41 0.43 0.43 0.37 0.29 0.24 0.21 0.19 0.16 0.14 0.11 0.07 0.04 0.03 0.03 0.03 0.02 0.01 0.00 0.00 0.01 0.02 0.01 0.01 0.02 0.02 0.02 0.02 0.01 0.01 0.00
0.16 0.26 0.32 0.35 0.35 0.36 0.37 0.36 0.36 0.35 0.31 0.25 0.21 0.19 0.17 0.15 0.12 0.08 0.04 0.02 0.01 0.01 0.01 0.01 0.00 0.00 0.00 0.00 0.00 0.00 0.00 0.00 0.00 0.00 0.00 0.00 0.00 0.00
0.15 0.24 0.31 0.32 0.29 0.26 0.25 0.26 0.26 0.25 0.23 0.20 0.18 0.16 0.14 0.12 0.09 0.05 0.03 0.02 0.01 0.01 0.00 0.00 0.00 0.00 0.00 0.00 0.00 0.00 0.00 0.00 0.00 0.00 0.00 0.00 0.00 0.00
0.14 0.18 0.24 0.27 0.27 0.23 0.20 0.17 0.17 0.17 0.16 0.14 0.12 0.11 0.10 0.09 0.07 0.04 0.03 0.01 0.00 0.00 0.00 0.01 0.01 0.00 0.00 0.00 0.00 0.00 0.00 0.00 0.00 0.00 0.00 0.00 0.00 0.00

GEFSNE_prec_meanprecacc_024.txt.gz
Total_Precipitation_Accumulation
0.04 0.04 0.04 0.05 0.06 0.07 0.09 0.11 0.15 0.14 0.08 0.02 0.02 0.03 0.06 0.13 0.24 0.27 0.27 0.17 0.10 0.06 0.04 0.02 0.02 0.02 0.02 0.02 0.02 0.03 0.05 0.08 0.18 0.28 0.36 0.41 0.41 0.39
0.06 0.06 0.06 0.05 0.06 0.06 0.07 0.09 0.15 0.21 0.18 0.06 0.03 0.04 0.09 0.14 0.28 0.32 0.35 0.30 0.21 0.12 0.07 0.04 0.03 0.03 0.03 0.03 0.03 0.03 0.05 0.08 0.15 0.22 0.32 0.40 0.43 0.46
0.04 0.04 0.04 0.04 0.05 0.05 0.07 0.09 0.11 0.17 0.19 0.10 0.05 0.05 0.10 0.17 0.24 0.27 0.27 0.25 0.22 0.20 0.12 0.08 0.07 0.05 0.04 0.03 0.04 0.07 0.11 0.15 0.20 0.25 0.34 0.45 0.49 0.47
0.03 0.04 0.04 0.04 0.05 0.05 0.06 0.08 0.10 0.15 0.22 0.18 0.09 0.05 0.07 0.12 0.17 0.18 0.18 0.19 0.20 0.24 0.16 0.10 0.08 0.07 0.10 0.07 0.04 0.08 0.15 0.25 0.32 0.36 0.42 0.48 0.50 0.46
0.04 0.04 0.05 0.06 0.05 0.05 0.07 0.09 0.11 0.15 0.20 0.21 0.11 0.07 0.10 0.16 0.22 0.23 0.20 0.23 0.22 0.21 0.17 0.12 0.08 0.09 0.32 0.39 0.16 0.13 0.18 0.31 0.38 0.42 0.50 0.53 0.48 0.42
0.04 0.06 0.07 0.07 0.07 0.09 0.10 0.12 0.15 0.16 0.16 0.16 0.11 0.07 0.10 0.16 0.20 0.27 0.27 0.23 0.22 0.15 0.17 0.14 0.13 0.20 0.58 1.14 0.61 0.29 0.25 0.31 0.37 0.43 0.47 0.46 0.41 0.34
0.03 0.06 0.07 0.07 0.11 0.12 0.11 0.12 0.16 0.17 0.17 0.17 0.13 0.10 0.10 0.16 0.20 0.24 0.24 0.27 0.24 0.17 0.20 0.18 0.30 0.62 1.13 1.81 1.39 0.76 0.54 0.46 0.41 0.42 0.44 0.43 0.38 0.30
0.04 0.05 0.03 0.03 0.03 0.04 0.07 0.10 0.14 0.17 0.20 0.21 0.18 0.14 0.11 0.14 0.20 0.26 0.26 0.27 0.23 0.15 0.14 0.22 0.50 1.20 1.88 2.28 1.93 1.21 0.92 0.72 0.59 0.60 0.62 0.54 0.41 0.30
0.05 0.03 0.02 0.01 0.02 0.03 0.05 0.08 0.12 0.17 0.23 0.27 0.24 0.16 0.14 0.16 0.25 0.31 0.26 0.25 0.26 0.17 0.12 0.20 0.57 1.41 1.84 2.15 2.01 1.38 1.09 0.91 0.80 0.83 0.81 0.61 0.41 0.30
0.03 0.03 0.03 0.02 0.03 0.05 0.07 0.12 0.14 0.16 0.23 0.28 0.27 0.23 0.23 0.22 0.24 0.25 0.22 0.23 0.20 0.12 0.09 0.23 0.65 1.30 1.51 1.59 1.76 1.42 1.16 1.04 0.97 0.93 0.85 0.63 0.44 0.34
0.02 0.02 0.04 0.03 0.05 0.08 0.11 0.16 0.19 0.25 0.42 0.57 0.54 0.46 0.43 0.36 0.24 0.17 0.17 0.20 0.21 0.13 0.09 0.22 0.55 0.98 1.18 1.23 1.30 1.32 1.23 1.16 1.07 1.00 0.87 0.63 0.46 0.38
0.01 0.01 0.03 0.05 0.06 0.09 0.14 0.20 0.27 0.38 0.59 0.77 0.65 0.52 0.42 0.35 0.29 0.19 0.20 0.28 0.26 0.13 0.09 0.17 0.38 0.61 0.87 1.07 0.99 0.92 0.99 1.12 1.15 1.13 0.97 0.67 0.42 0.29
0.03 0.03 0.05 0.10 0.10 0.11 0.19 0.29 0.43 0.53 0.67 0.79 0.61 0.41 0.31 0.23 0.22 0.24 0.24 0.21 0.14 0.08 0.07 0.13 0.29 0.42 0.55 0.79 0.95 0.92 0.83 0.85 0.92 1.04 1.03 0.80 0.49 0.27
0.07 0.09 0.13 0.17 0.14 0.18 0.29 0.45 0.59 0.67 0.66 0.65 0.48 0.30 0.20 0.19 0.22 0.20 0.14 0.08 0.05 0.04 0.06 0.11 0.24 0.40 0.42 0.47 0.72 0.85 0.83 0.82 0.81 0.85 0.86 0.78 0.57 0.43
0.10 0.19 0.23 0.21 0.25 0.33 0.50 0.64 0.69 0.67 0.62 0.49 0.36 0.27 0.16 0.13 0.14 0.13 0.09 0.05 0.05 0.06 0.08 0.11 0.20 0.35 0.36 0.33 0.46 0.55 0.66 0.79 0.78 0.77 0.73 0.63 0.50 0.41
0.08 0.18 0.26 0.29 0.40 0.54 0.64 0.68 0.69 0.71 0.61 0.43 0.33 0.25 0.16 0.13 0.11 0.10 0.08 0.08 0.09 0.12 0.12 0.13 0.20 0.27 0.31 0.30 0.32 0.38 0.43 0.67 0.77 0.69 0.64 0.60 0.53 0.44
0.10 0.14 0.18 0.26 0.40 0.53 0.62 0.64 0.63 0.64 0.58 0.43 0.34 0.26 0.20 0.15 0.14 0.11 0.10 0.09 0.11 0.13 0.14 0.17 0.22 0.25 0.27 0.28 0.29 0.34 0.39 0.51 0.59 0.53 0.46 0.49 0.52 0.49
0.13 0.20 0.28 0.35 0.44 0.53 0.60 0.64 0.61 0.54 0.48 0.43 0.37 0.30 0.24 0.19 0.17 0.15 0.12 0.11 0.12 0.13 0.13 0.15 0.16 0.15 0.17 0.24 0.25 0.25 0.28 0.35 0.39 0.36 0.29 0.31 0.38 0.40
0.16 0.27 0.38 0.45 0.49 0.53 0.54 0.53 0.55 0.52 0.44 0.38 0.34 0.31 0.26 0.20 0.18 0.16 0.14 0.12 0.11 0.10 0.10 0.09 0.08 0.05 0.04 0.14 0.25 0.21 0.19 0.21 0.23 0.25 0.23 0.18 0.20 0.24
0.21 0.34 0.43 0.47 0.50 0.52 0.50 0.46 0.47 0.47 0.40 0.32 0.27 0.25 0.24 0.20 0.17 0.15 0.11 0.08 0.06 0.05 0.05 0.04 0.03 0.02 0.01 0.04 0.11 0.16 0.13 0.13 0.13 0.14 0.15 0.13 0.12 0.12
0.24 0.34 0.41 0.44 0.43 0.44 0.44 0.42 0.41 0.39 0.35 0.29 0.26 0.24 0.22 0.19 0.15 0.11 0.07 0.04 0.03 0.02 0.02 0.02 0.02 0.01 0.01 0.01 0.02 0.05 0.07 0.07 0.07 0.07 0.07 0.08 0.07 0.07
0.22 0.31 0.38 0.39 0.36 0.33 0.31 0.30 0.30 0.29 0.27 0.25 0.23 0.22 0.20 0.17 0.13 0.09 0.06 0.04 0.02 0.01 0.01 0.01 0.01 0.00 0.00 0.01 0.01 0.02 0.02 0.02 0.02 0.02 0.02 0.03 0.03 0.04
0.20 0.24 0.29 0.32 0.31 0.28 0.24 0.21 0.21 0.22 0.21 0.19 0.17 0.16 0.15 0.13 0.10 0.07 0.05 0.03 0.01 0.01 0.01 0.01 0.01 0.00 0.00 0.00 0.01 0.01 0.01 0.01 0.00 0.00 0.00 0.00 0.00 0.01

GEFSNE_prec_meanprecacc_030.txt.gz
Total_Precipitation_Accumulation
0.05 0.05 0.06 0.06 0.07 0.08 0.09 0.12 0.16 0.15 0.08 0.02 0.02 0.03 0.06 0.13 0.24 0.27 0.27 0.19 0.12 0.08 0.05 0.03 0.02 0.02 0.02 0.02 0.02 0.03 0.05 0.09 0.18 0.29 0.39 0.47 0.51 0.53
0.08 0.08 0.08 0.08 0.08 0.08 0.09 0.11 0.16 0.23 0.19 0.07 0.03 0.04 0.09 0.14 0.28 0.32 0.36 0.31 0.22 0.14 0.08 0.05 0.03 0.03 0.03 0.03 0.03 0.04 0.06 0.09 0.15 0.22 0.33 0.43 0.50 0.59
0.07 0.07 0.07 0.07 0.09 0.09 0.09 0.11 0.12 0.18 0.21 0.11 0.05 0.06 0.11 0.18 0.26 0.29 0.30 0.28 0.25 0.23 0.14 0.10 0.08 0.06 0.04 0.04 0.04 0.07 0.11 0.16 0.20 0.25 0.35 0.46 0.53 0.55
0.06 0.07 0.07 0.07 0.08 0.07 0.08 0.09 0.11 0.16 0.23 0.20 0.10 0.06 0.09 0.15 0.20 0.21 0.21 0.20 0.22 0.26 0.18 0.11 0.08 0.07 0.10 0.07 0.05 0.09 0.16 0.26 0.33 0.37 0.43 0.49 0.51 0.51
0.06 0.07 0.07 0.08 0.07 0.06 0.08 0.10 0.12 0.16 0.21 0.23 0.14 0.09 0.12 0.19 0.26 0.25 0.22 0.26 0.24 0.23 0.19 0.13 0.09 0.10 0.33 0.40 0.17 0.14 0.19 0.31 0.38 0.42 0.51 0.54 0.50 0.44
0.05 0.07 0.08 0.08 0.09 0.11 0.12 0.13 0.16 0.18 0.19 0.20 0.15 0.10 0.13 0.18 0.24 0.31 0.31 0.28 0.27 0.18 0.20 0.18 0.16 0.22 0.59 1.14 0.62 0.30 0.25 0.31 0.37 0.43 0.48 0.47 0.42 0.36
0.04 0.07 0.08 0.08 0.12 0.13 0.13 0.14 0.18 0.21 0.22 0.22 0.17 0.14 0.13 0.19 0.24 0.28 0.29 0.30 0.27 0.20 0.24 0.22 0.35 0.66 1.17 1.84 1.41 0.77 0.55 0.47 0.41 0.42 0.44 0.44 0.38 0.30
0.05 0.06 0.04 0.04 0.05 0.05 0.08 0.13 0.18 0.22 0.25 0.27 0.23 0.18 0.14 0.17 0.24 0.30 0.31 0.32 0.26 0.18 0.19 0.26 0.54 1.25 1.94 2.33 1.97 1.23 0.93 0.72 0.59 0.61 0.62 0.54 0.41 0.31
0.07 0.06 0.04 0.03 0.04 0.07 0.09 0.12 0.15 0.21 0.27 0.32 0.29 0.20 0.17 0.20 0.30 0.37 0.32 0.32 0.32 0.22 0.18 0.25 0.62 1.46 1.89 2.18 2.04 1.39 1.10 0.92 0.81 0.83 0.81 0.61 0.41 0.31
0.05 0.05 0.06 0.06 0.07 0.09 0.11 0.15 0.16 0.18 0.25 0.32 0.31 0.27 0.27 0.28 0.33 0.34 0.31 0.32 0.27 0.18 0.16 0.29 0.69 1.34 1.55 1.62 1.78 1.43 1.16 1.04 0.97 0.94 0.86 0.63 0.44 0.35
0.03 0.04 0.06 0.06 0.08 0.09 0.14 0.19 0.21 0.27 0.44 0.61 0.58 0.51 0.50 0.46 0.34 0.27 0.27 0.30 0.30 0.20 0.16 0.29 0.59 1.02 1.20 1.26 1.32 1.34 1.24 1.16 1.08 1.00 0.88 0.63 0.46 0.38
0.02 0.02 0.04 0.07 0.08 0.11 0.16 0.23 0.31 0.40 0.62 0.81 0.71 0.61 0.52 0.47 0.41 0.29 0.31 0.39 0.36 0.24 0.17 0.25 0.44 0.66 0.91 1.09 1.00 0.93 1.00 1.14 1.15 1.13 0.97 0.67 0.42 0.29
0.04 0.05 0.08 0.13 0.12 0.14 0.22 0.32 0.46 0.56 0.71 0.85 0.68 0.49 0.39 0.31 0.31 0.32 0.33 0.31 0.25 0.19 0.16 0.22 0.37 0.49 0.60 0.84 0.98 0.96 0.87 0.89 0.96 1.07 1.04 0.81 0.50 0.28
0.09 0.11 0.16 0.20 0.18 0.22 0.33 0.49 0.63 0.72 0.71 0.71 0.55 0.37 0.27 0.25 0.27 0.26 0.20 0.15 0.14 0.15 0.15 0.18 0.32 0.47 0.49 0.53 0.80 0.93 0.93 0.94 0.95 0.96 0.92 0.84 0.61 0.45
0.13 0.23 0.27 0.25 0.30 0.39 0.55 0.69 0.75 0.73 0.68 0.56 0.42 0.32 0.22 0.19 0.19 0.19 0.16 0.13 0.13 0.14 0.15 0.17 0.26 0.42 0.44 0.42 0.58 0.68 0.82 1.05 1.07 1.01 0.90 0.74 0.58 0.45
0.11 0.23 0.34 0.37 0.47 0.61 0.71 0.74 0.74 0.76 0.67 0.48 0.37 0.29 0.21 0.17 0.17 0.15 0.15 0.15 0.16 0.19 0.19 0.20 0.26 0.34 0.40 0.40 0.45 0.55 0.65 1.00 1.15 1.00 0.86 0.77 0.64 0.50
0.14 0.19 0.23 0.31 0.46 0.60 0.68 0.70 0.68 0.69 0.63 0.48 0.38 0.30 0.24 0.20 0.19 0.16 0.15 0.15 0.18 0.20 0.21 0.25 0.31 0.32 0.35 0.37 0.43 0.52 0.63 0.82 0.93 0.80 0.65 0.67 0.68 0.57
0.17 0.24 0.33 0.40 0.50 0.60 0.67 0.71 0.67 0.60 0.54 0.48 0.42 0.35 0.29 0.25 0.23 0.20 0.17 0.17 0.18 0.19 0.20 0.22 0.23 0.20 0.21 0.30 0.38 0.40 0.45 0.56 0.62 0.54 0.41 0.42 0.53 0.52
0.19 0.31 0.43 0.50 0.55 0.60 0.61 0.60 0.62 0.58 0.50 0.43 0.40 0.37 0.31 0.26 0.23 0.21 0.18 0.16 0.16 0.16 0.15 0.14 0.12 0.08 0.06 0.20 0.39 0.38 0.32 0.32 0.33 0.33 0.29 0.23 0.30 0.35
0.24 0.39 0.48 0.53 0.56 0.59 0.56 0.53 0.54 0.53 0.46 0.38 0.34 0.32 0.30 0.25 0.22 0.19 0.16 0.12 0.10 0.09 0.08 0.08 0.08 0.06 0.04 0.08 0.24 0.36 0.31 0.23 0.18 0.18 0.19 0.17 0.19 0.22
0.27 0.38 0.46 0.49 0.48 0.49 0.49 0.48 0.47 0.46 0.41 0.36 0.33 0.31 0.29 0.24 0.20 0.14 0.10 0.07 0.06 0.05 0.04 0.05 0.07 0.06 0.04 0.03 0.09 0.19 0.23 0.19 0.12 0.10 0.09 0.10 0.10 0.10
0.25 0.35 0.41 0.42 0.40 0.37 0.36 0.36 0.36 0.36 0.34 0.32 0.30 0.29 0.27 0.23 0.18 0.12 0.09 0.07 0.05 0.04 0.03 0.04 0.06 0.05 0.05 0.03 0.05 0.09 0.10 0.08 0.06 0.05 0.05 0.04 0.04 0.06
0.23 0.26 0.32 0.35 0.34 0.32 0.28 0.26 0.26 0.28 0.27 0.25 0.24 0.22 0.20 0.18 0.14 0.10 0.07 0.04 0.03 0.02 0.02 0.03 0.03 0.03 0.03 0.02 0.03 0.04 0.04 0.03 0.02 0.02 0.03 0.03 0.02 0.02

GEFSNE_prec_meanprecacc_036.txt.gz
Total_Precipitation_Accumulation
0.05 0.05 0.06 0.06 0.07 0.08 0.10 0.13 0.17 0.15 0.08 0.02 0.02 0.03 0.06 0.13 0.24 0.27 0.27 0.19 0.13 0.09 0.06 0.05 0.04 0.04 0.04 0.04 0.04 0.05 0.06 0.10 0.19 0.29 0.39 0.47 0.51 0.54
0.08 0.08 0.08 0.08 0.08 0.09 0.09 0.11 0.17 0.24 0.20 0.07 0.03 0.04 0.09 0.14 0.28 0.33 0.36 0.32 0.22 0.14 0.09 0.06 0.05 0.04 0.05 0.04 0.04 0.05 0.07 0.09 0.16 0.23 0.34 0.43 0.50 0.60
0.07 0.07 0.07 0.08 0.09 0.09 0.10 0.11 0.13 0.19 0.22 0.11 0.05 0.06 0.11 0.18 0.26 0.29 0.30 0.28 0.25 0.23 0.16 0.12 0.10 0.07 0.06 0.05 0.06 0.09 0.13 0.17 0.21 0.26 0.36 0.47 0.53 0.55
0.07 0.07 0.07 0.07 0.08 0.07 0.08 0.09 0.11 0.16 0.24 0.20 0.10 0.06 0.09 0.15 0.20 0.22 0.21 0.20 0.22 0.27 0.20 0.14 0.10 0.09 0.12 0.09 0.06 0.10 0.17 0.26 0.33 0.37 0.44 0.50 0.52 0.51
0.06 0.07 0.08 0.08 0.07 0.06 0.08 0.10 0.12 0.16 0.22 0.23 0.14 0.10 0.12 0.19 0.26 0.26 0.22 0.26 0.25 0.24 0.20 0.15 0.12 0.13 0.35 0.41 0.18 0.14 0.19 0.31 0.38 0.43 0.52 0.54 0.50 0.45
0.05 0.07 0.08 0.09 0.09 0.11 0.12 0.13 0.16 0.19 0.19 0.21 0.16 0.11 0.14 0.18 0.24 0.31 0.31 0.28 0.27 0.19 0.21 0.19 0.17 0.23 0.61 1.16 0.63 0.31 0.26 0.31 0.37 0.43 0.48 0.47 0.42 0.36
0.04 0.07 0.08 0.09 0.13 0.15 0.14 0.16 0.20 0.23 0.24 0.24 0.20 0.16 0.15 0.20 0.25 0.29 0.30 0.31 0.27 0.20 0.24 0.23 0.36 0.67 1.18 1.85 1.43 0.79 0.56 0.47 0.42 0.43 0.44 0.44 0.38 0.31
0.05 0.06 0.04 0.04 0.05 0.06 0.10 0.16 0.22 0.26 0.30 0.31 0.27 0.22 0.16 0.19 0.26 0.32 0.34 0.35 0.29 0.19 0.20 0.26 0.54 1.25 1.94 2.34 1.98 1.25 0.94 0.74 0.60 0.62 0.63 0.54 0.41 0.31
0.07 0.06 0.04 0.03 0.05 0.07 0.10 0.14 0.17 0.23 0.31 0.37 0.34 0.23 0.20 0.23 0.35 0.43 0.39 0.38 0.36 0.24 0.21 0.28 0.63 1.47 1.90 2.20 2.06 1.42 1.13 0.94 0.83 0.85 0.82 0.62 0.42 0.31
0.05 0.06 0.07 0.06 0.07 0.10 0.11 0.16 0.17 0.19 0.27 0.34 0.34 0.29 0.30 0.32 0.39 0.42 0.38 0.38 0.31 0.21 0.21 0.34 0.71 1.36 1.57 1.65 1.82 1.46 1.19 1.07 1.00 0.97 0.88 0.64 0.45 0.35
0.03 0.04 0.06 0.07 0.08 0.11 0.15 0.21 0.22 0.28 0.45 0.63 0.62 0.56 0.56 0.53 0.42 0.34 0.35 0.39 0.37 0.24 0.21 0.35 0.64 1.05 1.23 1.28 1.35 1.38 1.28 1.19 1.10 1.03 0.91 0.65 0.48 0.39
0.02 0.02 0.05 0.08 0.09 0.13 0.17 0.25 0.33 0.42 0.64 0.83 0.73 0.65 0.56 0.53 0.48 0.36 0.39 0.48 0.45 0.33 0.25 0.33 0.50 0.71 0.96 1.12 1.03 0.97 1.03 1.17 1.18 1.16 1.00 0.70 0.44 0.30
0.04 0.05 0.08 0.14 0.14 0.15 0.23 0.33 0.49 0.59 0.74 0.87 0.70 0.52 0.42 0.35 0.35 0.38 0.39 0.39 0.34 0.30 0.24 0.30 0.44 0.55 0.66 0.89 1.02 0.99 0.90 0.91 0.98 1.08 1.06 0.83 0.52 0.29
0.10 0.13 0.17 0.22 0.19 0.24 0.34 0.50 0.66 0.75 0.73 0.73 0.57 0.40 0.30 0.29 0.32 0.31 0.26 0.22 0.22 0.23 0.22 0.25 0.39 0.53 0.55 0.58 0.84 0.96 0.96 0.97 0.98 0.98 0.94 0.85 0.63 0.46
0.14 0.25 0.29 0.27 0.32 0.41 0.57 0.71 0.77 0.75 0.70 0.58 0.45 0.35 0.25 0.23 0.23 0.24 0.21 0.19 0.19 0.20 0.21 0.23 0.32 0.46 0.48 0.46 0.62 0.73 0.88 1.12 1.13 1.05 0.92 0.76 0.59 0.46
0.12 0.25 0.35 0.38 0.49 0.63 0.73 0.76 0.76 0.78 0.69 0.51 0.40 0.32 0.25 0.21 0.20 0.19 0.19 0.19 0.22 0.25 0.24 0.25 0.31 0.39 0.45 0.46 0.52 0.63 0.74 1.11 1.27 1.09 0.92 0.82 0.67 0.51
0.16 0.19 0.24 0.32 0.48 0.62 0.70 0.72 0.70 0.71 0.66 0.52 0.42 0.34 0.28 0.24 0.23 0.20 0.18 0.19 0.22 0.25 0.27 0.30 0.35 0.36 0.38 0.43 0.52 0.64 0.76 0.97 1.09 0.93 0.74 0.77 0.76 0.61
0.18 0.25 0.34 0.42 0.52 0.63 0.70 0.74 0.70 0.63 0.57 0.52 0.45 0.39 0.32 0.28 0.26 0.22 0.19 0.19 0.21 0.23 0.25 0.26 0.26 0.22 0.22 0.34 0.51 0.55 0.62 0.75 0.80 0.68 0.52 0.54 0.67 0.61
0.20 0.32 0.45 0.52 0.58 0.63 0.64 0.64 0.66 0.63 0.54 0.48 0.44 0.40 0.34 0.28 0.25 0.23 0.20 0.18 0.19 0.18 0.17 0.15 0.14 0.09 0.08 0.26 0.51 0.55 0.50 0.51 0.50 0.47 0.40 0.34 0.44 0.48
0.25 0.40 0.50 0.56 0.59 0.62 0.60 0.57 0.58 0.57 0.51 0.43 0.38 0.35 0.31 0.26 0.23 0.21 0.18 0.14 0.12 0.11 0.10 0.09 0.10 0.07 0.05 0.12 0.37 0.55 0.49 0.37 0.30 0.29 0.29 0.26 0.31 0.33
0.29 0.40 0.48 0.51 0.52 0.53 0.53 0.52 0.51 0.51 0.46 0.41 0.37 0.35 0.31 0.26 0.21 0.16 0.12 0.09 0.08 0.07 0.06 0.07 0.09 0.07 0.04 0.04 0.16 0.32 0.37 0.32 0.21 0.17 0.16 0.16 0.17 0.16
0.27 0.37 0.44 0.44 0.42 0.39 0.39 0.39 0.40 0.40 0.38 0.36 0.34 0.32 0.29 0.25 0.19 0.14 0.10 0.08 0.07 0.06 0.05 0.06 0.07 0.07 0.06 0.04 0.09 0.16 0.20 0.18 0.15 0.13 0.11 0.08 0.06 0.08
0.26 0.29 0.34 0.37 0.36 0.33 0.30 0.27 0.28 0.30 0.30 0.28 0.27 0.25 0.22 0.19 0.15 0.11 0.08 0.06 0.04 0.03 0.03 0.04 0.04 0.04 0.04 0.04 0.05 0.08 0.09 0.08 0.06 0.08 0.12 0.09 0.05 0.05

GEFSNE_prec_meanprecacc_042.txt.gz
Total_Precipitation_Accumulation
0.05 0.05 0.06 0.06 0.07 0.08 0.10 0.13 0.17 0.16 0.09 0.02 0.02 0.03 0.06 0.13 0.24 0.27 0.27 0.19 0.13 0.09 0.06 0.05 0.04 0.04 0.04 0.04 0.05 0.06 0.07 0.11 0.21 0.32 0.41 0.49 0.53 0.55
0.08 0.08 0.08 0.08 0.08 0.09 0.09 0.11 0.17 0.24 0.20 0.07 0.03 0.04 0.09 0.14 0.28 0.33 0.36 0.32 0.22 0.14 0.09 0.06 0.05 0.05 0.05 0.05 0.05 0.06 0.08 0.11 0.18 0.25 0.36 0.46 0.52 0.61
0.07 0.08 0.07 0.08 0.09 0.09 0.10 0.11 0.13 0.19 0.22 0.11 0.05 0.06 0.11 0.18 0.26 0.29 0.30 0.28 0.25 0.23 0.16 0.12 0.10 0.09 0.08 0.07 0.08 0.11 0.15 0.19 0.24 0.29 0.39 0.49 0.55 0.57
0.07 0.07 0.07 0.07 0.08 0.07 0.08 0.09 0.11 0.16 0.24 0.20 0.10 0.06 0.09 0.15 0.20 0.22 0.21 0.20 0.22 0.27 0.21 0.14 0.11 0.11 0.14 0.11 0.09 0.12 0.19 0.28 0.35 0.40 0.46 0.53 0.55 0.54
0.06 0.07 0.08 0.08 0.07 0.06 0.08 0.10 0.12 0.16 0.22 0.24 0.14 0.10 0.13 0.19 0.26 0.26 0.22 0.26 0.25 0.24 0.20 0.15 0.13 0.14 0.37 0.43 0.20 0.16 0.20 0.32 0.39 0.44 0.53 0.56 0.53 0.47
0.05 0.07 0.08 0.09 0.09 0.11 0.12 0.13 0.17 0.19 0.20 0.21 0.16 0.11 0.14 0.18 0.25 0.32 0.32 0.29 0.28 0.19 0.21 0.19 0.17 0.24 0.62 1.17 0.64 0.32 0.27 0.32 0.38 0.43 0.48 0.48 0.43 0.37
0.04 0.07 0.08 0.09 0.13 0.15 0.15 0.16 0.21 0.24 0.25 0.26 0.22 0.18 0.16 0.21 0.26 0.30 0.31 0.32 0.28 0.21 0.24 0.23 0.36 0.67 1.18 1.86 1.44 0.81 0.58 0.49 0.43 0.43 0.45 0.44 0.39 0.31
0.05 0.06 0.04 0.04 0.05 0.06 0.11 0.17 0.24 0.29 0.33 0.35 0.31 0.25 0.18 0.20 0.28 0.35 0.36 0.37 0.31 0.19 0.20 0.27 0.55 1.25 1.94 2.34 1.99 1.25 0.95 0.74 0.61 0.62 0.63 0.54 0.41 0.31
0.07 0.06 0.04 0.03 0.05 0.08 0.11 0.14 0.18 0.24 0.34 0.41 0.38 0.27 0.23 0.26 0.39 0.49 0.44 0.42 0.40 0.26 0.23 0.31 0.64 1.47 1.90 2.20 2.07 1.42 1.13 0.95 0.83 0.85 0.83 0.63 0.42 0.31
0.05 0.06 0.07 0.06 0.07 0.11 0.12 0.16 0.17 0.19 0.28 0.35 0.36 0.32 0.33 0.36 0.44 0.48 0.44 0.44 0.35 0.22 0.24 0.40 0.73 1.37 1.58 1.65 1.83 1.48 1.21 1.08 1.01 0.97 0.88 0.65 0.46 0.36
0.03 0.04 0.06 0.07 0.09 0.12 0.16 0.22 0.23 0.29 0.46 0.64 0.64 0.58 0.59 0.58 0.48 0.40 0.42 0.45 0.41 0.26 0.24 0.41 0.69 1.08 1.24 1.29 1.37 1.40 1.30 1.21 1.12 1.05 0.93 0.66 0.49 0.40
0.02 0.02 0.05 0.08 0.10 0.14 0.18 0.27 0.34 0.43 0.65 0.84 0.75 0.67 0.59 0.57 0.54 0.42 0.45 0.55 0.51 0.38 0.29 0.38 0.55 0.74 1.00 1.14 1.04 0.99 1.06 1.19 1.21 1.18 1.02 0.73 0.47 0.31
0.04 0.06 0.09 0.14 0.14 0.16 0.24 0.35 0.51 0.61 0.76 0.89 0.73 0.54 0.45 0.38 0.38 0.41 0.44 0.45 0.42 0.37 0.30 0.36 0.49 0.60 0.71 0.92 1.03 1.00 0.92 0.94 1.00 1.11 1.09 0.87 0.55 0.32
0.11 0.13 0.18 0.22 0.20 0.24 0.35 0.51 0.67 0.77 0.76 0.76 0.61 0.44 0.35 0.33 0.35 0.34 0.29 0.27 0.28 0.31 0.30 0.33 0.46 0.60 0.60 0.62 0.86 0.98 0.98 1.00 1.00 1.00 0.97 0.90 0.67 0.50
0.16 0.26 0.29 0.28 0.33 0.41 0.57 0.73 0.79 0.77 0.73 0.62 0.50 0.41 0.30 0.26 0.26 0.26 0.23 0.22 0.24 0.26 0.27 0.29 0.38 0.53 0.54 0.52 0.67 0.77 0.91 1.16 1.17 1.09 0.96 0.80 0.62 0.48
0.13 0.26 0.36 0.39 0.50 0.64 0.74 0.78 0.78 0.81 0.72 0.54 0.44 0.36 0.28 0.24 0.22 0.21 0.21 0.21 0.25 0.29 0.29 0.30 0.37 0.45 0.51 0.52 0.59 0.70 0.79 1.17 1.32 1.14 0.98 0.87 0.71 0.54
0.16 0.20 0.24 0.33 0.49 0.63 0.72 0.74 0.73 0.74 0.69 0.54 0.44 0.36 0.30 0.26 0.24 0.21 0.19 0.20 0.24 0.28 0.31 0.35 0.40 0.41 0.43 0.49 0.60 0.73 0.84 1.06 1.18 1.01 0.82 0.85 0.83 0.66
0.19 0.25 0.34 0.43 0.54 0.65 0.72 0.77 0.73 0.66 0.60 0.54 0.47 0.40 0.34 0.29 0.27 0.23 0.20 0.20 0.23 0.26 0.28 0.30 0.30 0.25 0.26 0.40 0.60 0.67 0.73 0.88 0.92 0.78 0.60 0.63 0.76 0.69
0.20 0.33 0.46 0.54 0.61 0.65 0.67 0.67 0.69 0.66 0.57 0.50 0.45 0.41 0.35 0.29 0.26 0.24 0.21 0.20 0.20 0.21 0.20 0.18 0.15 0.11 0.10 0.33 0.63 0.70 0.64 0.65 0.63 0.59 0.51 0.44 0.56 0.60
0.26 0.41 0.52 0.58 0.62 0.65 0.63 0.60 0.61 0.60 0.53 0.45 0.40 0.36 0.32 0.27 0.24 0.22 0.19 0.15 0.14 0.12 0.11 0.11 0.11 0.09 0.07 0.18 0.51 0.74 0.65 0.49 0.40 0.41 0.40 0.37 0.45 0.48
0.30 0.42 0.50 0.53 0.54 0.55 0.55 0.53 0.53 0.53 0.48 0.42 0.38 0.36 0.32 0.26 0.22 0.17 0.13 0.11 0.10 0.08 0.08 0.10 0.12 0.10 0.06 0.06 0.23 0.45 0.55 0.49 0.34 0.27 0.25 0.27 0.28 0.24
0.29 0.39 0.46 0.46 0.44 0.41 0.40 0.40 0.41 0.40 0.39 0.37 0.35 0.33 0.29 0.25 0.20 0.15 0.11 0.09 0.08 0.07 0.06 0.08 0.09 0.08 0.06 0.06 0.14 0.27 0.34 0.32 0.30 0.28 0.24 0.15 0.11 0.12
0.28 0.31 0.36 0.38 0.38 0.34 0.31 0.28 0.28 0.30 0.30 0.29 0.28 0.25 0.23 0.20 0.16 0.12 0.09 0.06 0.05 0.04 0.04 0.05 0.05 0.05 0.05 0.05 0.07 0.12 0.14 0.13 0.11 0.15 0.22 0.18 0.09 0.09

GEFSNE_prec_meanprecacc_048.txt.gz
Total_Precipitation_Accumulation
0.05 0.06 0.07 0.07 0.08 0.09 0.10 0.13 0.18 0.16 0.09 0.02 0.02 0.03 0.06 0.13 0.24 0.28 0.27 0.19 0.13 0.09 0.06 0.05 0.04 0.04 0.05 0.05 0.05 0.06 0.08 0.12 0.22 0.33 0.44 0.53 0.59 0.62
0.09 0.09 0.09 0.08 0.09 0.09 0.10 0.12 0.17 0.25 0.20 0.07 0.03 0.05 0.09 0.14 0.28 0.33 0.36 0.32 0.23 0.14 0.09 0.06 0.05 0.05 0.06 0.06 0.06 0.07 0.09 0.12 0.19 0.27 0.38 0.49 0.56 0.67
0.07 0.08 0.07 0.08 0.09 0.09 0.10 0.11 0.13 0.19 0.22 0.11 0.05 0.06 0.11 0.19 0.27 0.30 0.31 0.29 0.26 0.24 0.16 0.12 0.11 0.09 0.08 0.08 0.09 0.13 0.17 0.22 0.26 0.32 0.42 0.53 0.60 0.62
0.07 0.07 0.07 0.07 0.08 0.07 0.08 0.09 0.11 0.17 0.25 0.21 0.10 0.07 0.10 0.16 0.21 0.23 0.22 0.21 0.23 0.27 0.21 0.14 0.12 0.11 0.15 0.13 0.10 0.14 0.20 0.29 0.37 0.42 0.49 0.57 0.60 0.59
0.06 0.07 0.08 0.08 0.07 0.07 0.09 0.10 0.13 0.17 0.23 0.26 0.16 0.11 0.13 0.20 0.28 0.28 0.24 0.29 0.27 0.25 0.21 0.16 0.13 0.14 0.38 0.44 0.21 0.17 0.20 0.33 0.39 0.45 0.54 0.58 0.56 0.52
0.05 0.07 0.09 0.09 0.09 0.12 0.14 0.16 0.19 0.22 0.22 0.24 0.19 0.14 0.16 0.20 0.28 0.35 0.35 0.32 0.30 0.20 0.22 0.20 0.19 0.25 0.62 1.17 0.64 0.33 0.27 0.32 0.38 0.44 0.49 0.48 0.44 0.39
0.04 0.07 0.08 0.09 0.13 0.16 0.17 0.20 0.26 0.30 0.30 0.31 0.26 0.21 0.19 0.25 0.31 0.36 0.36 0.36 0.30 0.23 0.28 0.26 0.39 0.71 1.22 1.88 1.45 0.81 0.59 0.50 0.43 0.44 0.45 0.45 0.39 0.32
0.05 0.07 0.05 0.04 0.06 0.07 0.11 0.19 0.27 0.34 0.38 0.41 0.37 0.31 0.23 0.26 0.34 0.41 0.42 0.42 0.35 0.23 0.25 0.31 0.58 1.29 1.98 2.38 2.01 1.26 0.95 0.75 0.62 0.63 0.64 0.55 0.42 0.32
0.08 0.07 0.05 0.04 0.06 0.10 0.12 0.15 0.19 0.26 0.37 0.47 0.46 0.34 0.30 0.33 0.47 0.56 0.50 0.48 0.45 0.31 0.30 0.36 0.68 1.52 1.94 2.23 2.08 1.43 1.13 0.95 0.85 0.87 0.84 0.63 0.43 0.31
0.06 0.07 0.09 0.09 0.10 0.12 0.13 0.18 0.20 0.23 0.32 0.41 0.43 0.39 0.39 0.42 0.50 0.54 0.50 0.49 0.39 0.28 0.32 0.46 0.78 1.42 1.61 1.70 1.86 1.48 1.21 1.08 1.02 0.99 0.90 0.66 0.46 0.36
0.04 0.05 0.08 0.10 0.10 0.12 0.17 0.25 0.26 0.32 0.48 0.66 0.66 0.61 0.62 0.61 0.51 0.45 0.49 0.51 0.45 0.29 0.30 0.47 0.73 1.12 1.28 1.35 1.42 1.41 1.31 1.22 1.13 1.06 0.94 0.68 0.50 0.41
0.03 0.04 0.07 0.09 0.10 0.14 0.20 0.30 0.39 0.47 0.68 0.88 0.79 0.71 0.63 0.62 0.58 0.47 0.52 0.61 0.56 0.41 0.33 0.42 0.58 0.78 1.03 1.18 1.10 1.04 1.11 1.22 1.23 1.20 1.04 0.75 0.48 0.35
0.06 0.07 0.11 0.14 0.14 0.16 0.25 0.38 0.55 0.63 0.80 0.95 0.78 0.59 0.50 0.43 0.43 0.47 0.49 0.51 0.48 0.43 0.35 0.41 0.54 0.64 0.75 0.95 1.06 1.05 0.98 1.00 1.05 1.16 1.12 0.89 0.57 0.36
0.13 0.16 0.20 0.23 0.20 0.25 0.36 0.53 0.69 0.80 0.82 0.82 0.66 0.49 0.39 0.37 0.39 0.38 0.33 0.32 0.33 0.36 0.34 0.39 0.53 0.65 0.65 0.66 0.89 1.02 1.02 1.04 1.05 1.07 1.03 0.93 0.70 0.53
0.17 0.27 0.30 0.28 0.33 0.44 0.59 0.74 0.82 0.83 0.79 0.67 0.54 0.45 0.35 0.31 0.30 0.30 0.27 0.27 0.29 0.30 0.31 0.33 0.43 0.58 0.60 0.57 0.72 0.81 0.95 1.20 1.21 1.15 1.04 0.86 0.68 0.53
0.14 0.28 0.37 0.40 0.52 0.67 0.77 0.82 0.84 0.87 0.78 0.60 0.49 0.41 0.32 0.27 0.26 0.24 0.24 0.25 0.28 0.31 0.31 0.34 0.41 0.50 0.57 0.57 0.64 0.75 0.85 1.23 1.38 1.20 1.06 0.95 0.79 0.61
0.17 0.22 0.27 0.35 0.51 0.65 0.75 0.78 0.78 0.80 0.74 0.59 0.48 0.39 0.33 0.28 0.27 0.24 0.23 0.23 0.27 0.30 0.33 0.38 0.44 0.46 0.49 0.54 0.67 0.79 0.91 1.14 1.26 1.08 0.90 0.94 0.92 0.73
0.20 0.27 0.36 0.45 0.56 0.67 0.75 0.80 0.77 0.72 0.65 0.58 0.51 0.44 0.37 0.32 0.30 0.26 0.23 0.23 0.26 0.29 0.31 0.33 0.32 0.28 0.30 0.45 0.70 0.77 0.80 0.97 1.01 0.87 0.68 0.72 0.85 0.78
0.22 0.35 0.48 0.56 0.63 0.68 0.69 0.70 0.72 0.70 0.62 0.55 0.49 0.44 0.38 0.32 0.28 0.27 0.24 0.22 0.23 0.23 0.23 0.20 0.17 0.13 0.13 0.39 0.73 0.84 0.75 0.74 0.72 0.68 0.60 0.53 0.65 0.70
0.27 0.43 0.54 0.60 0.65 0.67 0.65 0.61 0.63 0.62 0.56 0.49 0.44 0.39 0.35 0.30 0.27 0.24 0.21 0.17 0.16 0.14 0.14 0.13 0.14 0.12 0.12 0.26 0.64 0.90 0.78 0.57 0.47 0.49 0.49 0.46 0.56 0.61
0.32 0.44 0.52 0.56 0.57 0.57 0.57 0.55 0.54 0.54 0.49 0.44 0.41 0.39 0.36 0.29 0.24 0.19 0.15 0.12 0.11 0.10 0.11 0.14 0.17 0.15 0.09 0.09 0.31 0.59 0.69 0.64 0.44 0.36 0.34 0.36 0.38 0.34
0.30 0.40 0.47 0.48 0.46 0.43 0.41 0.41 0.42 0.41 0.40 0.38 0.37 0.36 0.33 0.28 0.22 0.16 0.13 0.11 0.10 0.09 0.09 0.11 0.12 0.09 0.07 0.08 0.21 0.39 0.46 0.44 0.41 0.40 0.34 0.23 0.16 0.18
0.29 0.32 0.37 0.40 0.39 0.35 0.32 0.29 0.29 0.31 0.31 0.30 0.29 0.28 0.25 0.21 0.17 0.13 0.10 0.07 0.06 0.05 0.05 0.06 0.06 0.05 0.06 0.06 0.10 0.16 0.19 0.17 0.15 0.20 0.32 0.29 0.16 0.16

GEFSNE_prec_meanprecacc_054.txt.gz
Total_Precipitation_Accumulation
0.06 0.06 0.07 0.07 0.08 0.09 0.10 0.14 0.18 0.17 0.09 0.03 0.02 0.03 0.06 0.13 0.24 0.28 0.27 0.19 0.13 0.09 0.07 0.05 0.04 0.05 0.05 0.06 0.06 0.07 0.09 0.13 0.23 0.34 0.45 0.55 0.60 0.64
0.09 0.09 0.09 0.09 0.09 0.09 0.10 0.12 0.18 0.25 0.20 0.07 0.03 0.05 0.09 0.14 0.28 0.33 0.36 0.32 0.23 0.15 0.10 0.07 0.06 0.06 0.06 0.07 0.07 0.08 0.10 0.13 0.20 0.28 0.40 0.51 0.58 0.69
0.07 0.08 0.08 0.08 0.10 0.09 0.10 0.11 0.13 0.19 0.23 0.11 0.05 0.06 0.12 0.19 0.27 0.30 0.31 0.30 0.26 0.24 0.16 0.13 0.11 0.09 0.09 0.09 0.10 0.14 0.17 0.22 0.27 0.33 0.44 0.55 0.62 0.64
0.07 0.07 0.07 0.08 0.08 0.08 0.09 0.10 0.12 0.17 0.26 0.22 0.11 0.07 0.10 0.17 0.22 0.25 0.23 0.22 0.24 0.28 0.21 0.15 0.12 0.12 0.15 0.13 0.11 0.14 0.20 0.30 0.37 0.42 0.50 0.58 0.62 0.62
0.07 0.07 0.08 0.09 0.08 0.08 0.10 0.12 0.14 0.18 0.26 0.28 0.18 0.12 0.15 0.21 0.30 0.30 0.27 0.32 0.29 0.25 0.21 0.16 0.14 0.15 0.38 0.44 0.21 0.17 0.20 0.33 0.39 0.45 0.54 0.59 0.57 0.53
0.05 0.08 0.09 0.10 0.11 0.14 0.15 0.17 0.22 0.25 0.25 0.27 0.21 0.16 0.18 0.23 0.33 0.40 0.39 0.36 0.34 0.22 0.24 0.21 0.20 0.26 0.63 1.18 0.65 0.33 0.28 0.32 0.38 0.44 0.49 0.48 0.44 0.39
0.05 0.08 0.09 0.10 0.14 0.17 0.17 0.20 0.27 0.32 0.33 0.35 0.30 0.25 0.22 0.29 0.37 0.42 0.42 0.40 0.34 0.26 0.31 0.28 0.43 0.75 1.26 1.92 1.48 0.83 0.60 0.50 0.44 0.44 0.45 0.45 0.39 0.32
0.07 0.08 0.06 0.06 0.07 0.08 0.12 0.19 0.28 0.36 0.42 0.46 0.42 0.36 0.28 0.32 0.42 0.47 0.48 0.47 0.38 0.25 0.29 0.33 0.62 1.33 2.02 2.43 2.05 1.28 0.96 0.76 0.62 0.63 0.64 0.55 0.42 0.32
0.10 0.09 0.06 0.05 0.09 0.13 0.14 0.16 0.21 0.29 0.42 0.54 0.53 0.41 0.37 0.40 0.54 0.61 0.55 0.53 0.49 0.34 0.36 0.40 0.73 1.57 1.98 2.26 2.09 1.43 1.13 0.95 0.85 0.87 0.84 0.63 0.43 0.31
0.08 0.09 0.11 0.13 0.13 0.13 0.13 0.18 0.23 0.29 0.39 0.46 0.50 0.45 0.45 0.47 0.54 0.58 0.54 0.53 0.42 0.32 0.39 0.52 0.82 1.47 1.64 1.75 1.89 1.49 1.21 1.08 1.02 0.99 0.91 0.67 0.47 0.36
0.05 0.08 0.10 0.13 0.12 0.12 0.17 0.26 0.29 0.37 0.51 0.68 0.68 0.63 0.63 0.62 0.53 0.48 0.53 0.57 0.49 0.33 0.35 0.52 0.77 1.14 1.29 1.39 1.47 1.43 1.32 1.23 1.13 1.06 0.94 0.68 0.50 0.41
0.05 0.07 0.09 0.10 0.11 0.14 0.20 0.32 0.43 0.51 0.70 0.90 0.83 0.76 0.68 0.66 0.61 0.52 0.59 0.68 0.62 0.46 0.36 0.45 0.61 0.81 1.05 1.19 1.13 1.09 1.16 1.27 1.24 1.20 1.04 0.75 0.49 0.36
0.07 0.11 0.15 0.15 0.14 0.16 0.25 0.40 0.58 0.64 0.81 1.00 0.84 0.64 0.54 0.47 0.48 0.54 0.57 0.59 0.55 0.49 0.40 0.47 0.58 0.68 0.79 0.98 1.07 1.09 1.03 1.06 1.11 1.20 1.13 0.89 0.58 0.38
0.16 0.19 0.23 0.23 0.20 0.25 0.37 0.54 0.69 0.82 0.87 0.90 0.72 0.53 0.43 0.41 0.43 0.43 0.40 0.39 0.41 0.43 0.40 0.45 0.59 0.71 0.71 0.70 0.92 1.04 1.06 1.08 1.11 1.14 1.10 0.97 0.71 0.54
0.20 0.28 0.30 0.28 0.34 0.47 0.62 0.75 0.85 0.90 0.88 0.74 0.60 0.50 0.39 0.35 0.35 0.34 0.32 0.33 0.35 0.35 0.34 0.37 0.48 0.63 0.66 0.64 0.77 0.85 0.99 1.24 1.26 1.20 1.11 0.93 0.72 0.56
0.16 0.29 0.39 0.42 0.54 0.71 0.82 0.88 0.92 0.94 0.83 0.67 0.54 0.45 0.36 0.31 0.30 0.29 0.29 0.30 0.32 0.34 0.34 0.36 0.45 0.55 0.62 0.62 0.69 0.81 0.91 1.29 1.44 1.26 1.12 1.04 0.88 0.71
0.17 0.24 0.32 0.41 0.56 0.71 0.81 0.84 0.86 0.87 0.80 0.64 0.53 0.43 0.36 0.32 0.31 0.29 0.28 0.28 0.30 0.33 0.36 0.40 0.46 0.49 0.53 0.58 0.72 0.86 0.98 1.21 1.32 1.14 0.97 1.04 1.02 0.84
0.22 0.31 0.41 0.48 0.59 0.70 0.79 0.85 0.83 0.78 0.71 0.63 0.55 0.48 0.40 0.35 0.33 0.30 0.27 0.26 0.29 0.32 0.34 0.35 0.34 0.30 0.33 0.48 0.76 0.85 0.87 1.04 1.08 0.94 0.76 0.80 0.94 0.87
0.25 0.38 0.51 0.60 0.66 0.71 0.73 0.75 0.78 0.76 0.68 0.60 0.53 0.48 0.41 0.34 0.30 0.29 0.26 0.24 0.25 0.26 0.25 0.22 0.18 0.14 0.15 0.43 0.78 0.92 0.83 0.82 0.78 0.74 0.66 0.59 0.71 0.76
0.30 0.46 0.57 0.64 0.69 0.71 0.70 0.67 0.69 0.69 0.62 0.54 0.48 0.43 0.38 0.32 0.28 0.26 0.23 0.19 0.17 0.16 0.15 0.14 0.15 0.15 0.15 0.30 0.70 0.97 0.86 0.63 0.53 0.55 0.55 0.51 0.61 0.68
0.34 0.46 0.56 0.60 0.62 0.63 0.62 0.61 0.61 0.61 0.56 0.50 0.46 0.42 0.37 0.31 0.26 0.21 0.16 0.13 0.13 0.12 0.13 0.17 0.20 0.17 0.11 0.11 0.35 0.65 0.76 0.72 0.52 0.43 0.41 0.42 0.44 0.41
0.31 0.42 0.50 0.53 0.52 0.49 0.47 0.47 0.48 0.48 0.47 0.45 0.43 0.39 0.34 0.29 0.23 0.18 0.14 0.13 0.12 0.11 0.11 0.14 0.14 0.10 0.08 0.10 0.24 0.43 0.52 0.49 0.46 0.46 0.41 0.29 0.21 0.24
0.31 0.34 0.39 0.44 0.43 0.40 0.35 0.33 0.33 0.36 0.37 0.37 0.36 0.32 0.27 0.22 0.18 0.14 0.11 0.09 0.08 0.07 0.07 0.08 0.08 0.07 0.07 0.08 0.12 0.19 0.22 0.21 0.18 0.22 0.36 0.36 0.23 0.23

GEFSNE_prec_meanprecacc_060.txt.gz
Total_Precipitation_Accumulation
0.06 0.06 0.07 0.07 0.08 0.09 0.10 0.14 0.19 0.17 0.09 0.03 0.02 0.03 0.06 0.14 0.24 0.28 0.27 0.19 0.13 0.09 0.07 0.05 0.05 0.05 0.05 0.06 0.06 0.08 0.10 0.14 0.24 0.36 0.47 0.56 0.62 0.66
0.09 0.09 0.09 0.09 0.09 0.09 0.10 0.12 0.18 0.25 0.21 0.07 0.03 0.05 0.09 0.14 0.28 0.33 0.36 0.32 0.23 0.15 0.10 0.07 0.06 0.06 0.07 0.08 0.08 0.09 0.12 0.15 0.22 0.30 0.43 0.54 0.61 0.72
0.07 0.08 0.08 0.08 0.10 0.09 0.10 0.11 0.13 0.19 0.23 0.11 0.05 0.06 0.12 0.19 0.27 0.30 0.31 0.30 0.26 0.24 0.17 0.13 0.12 0.10 0.10 0.10 0.11 0.15 0.19 0.24 0.29 0.35 0.46 0.58 0.66 0.68
0.07 0.07 0.07 0.08 0.08 0.08 0.09 0.10 0.12 0.17 0.26 0.22 0.11 0.07 0.10 0.17 0.23 0.25 0.23 0.22 0.24 0.28 0.21 0.15 0.12 0.12 0.17 0.14 0.12 0.15 0.21 0.30 0.38 0.43 0.51 0.60 0.65 0.65
0.07 0.07 0.08 0.09 0.08 0.08 0.11 0.12 0.14 0.18 0.26 0.28 0.18 0.12 0.15 0.21 0.31 0.31 0.27 0.32 0.29 0.25 0.21 0.16 0.14 0.16 0.39 0.45 0.22 0.18 0.21 0.33 0.39 0.45 0.55 0.59 0.58 0.55
0.05 0.08 0.10 0.10 0.11 0.14 0.15 0.17 0.22 0.25 0.25 0.28 0.21 0.16 0.18 0.23 0.33 0.41 0.39 0.36 0.34 0.22 0.24 0.22 0.20 0.26 0.63 1.19 0.66 0.34 0.28 0.32 0.38 0.44 0.49 0.48 0.44 0.40
0.05 0.08 0.10 0.11 0.15 0.17 0.17 0.21 0.27 0.32 0.33 0.35 0.30 0.25 0.22 0.29 0.37 0.43 0.42 0.40 0.34 0.26 0.32 0.28 0.43 0.75 1.26 1.92 1.49 0.85 0.61 0.51 0.44 0.44 0.45 0.45 0.39 0.32
0.07 0.09 0.07 0.06 0.07 0.08 0.12 0.20 0.29 0.36 0.42 0.46 0.43 0.37 0.29 0.33 0.42 0.48 0.48 0.48 0.38 0.25 0.30 0.33 0.62 1.33 2.02 2.44 2.06 1.29 0.97 0.76 0.62 0.64 0.64 0.55 0.42 0.32
0.10 0.09 0.07 0.06 0.09 0.13 0.14 0.16 0.21 0.29 0.43 0.55 0.54 0.42 0.38 0.41 0.55 0.62 0.55 0.54 0.50 0.34 0.36 0.40 0.73 1.57 1.98 2.26 2.10 1.44 1.14 0.96 0.85 0.87 0.84 0.63 0.43 0.32
0.08 0.09 0.12 0.13 0.13 0.13 0.13 0.18 0.23 0.29 0.39 0.47 0.51 0.46 0.45 0.47 0.55 0.59 0.55 0.54 0.42 0.32 0.40 0.52 0.82 1.47 1.64 1.76 1.89 1.50 1.22 1.09 1.02 0.99 0.91 0.67 0.47 0.36
0.06 0.08 0.11 0.14 0.12 0.12 0.17 0.26 0.29 0.37 0.51 0.68 0.68 0.63 0.63 0.62 0.53 0.49 0.54 0.58 0.51 0.33 0.36 0.53 0.77 1.15 1.30 1.40 1.47 1.44 1.32 1.23 1.14 1.06 0.94 0.68 0.51 0.41
0.05 0.08 0.10 0.10 0.11 0.14 0.20 0.32 0.43 0.51 0.70 0.90 0.83 0.76 0.68 0.67 0.62 0.53 0.60 0.70 0.64 0.48 0.38 0.48 0.63 0.82 1.07 1.20 1.13 1.10 1.17 1.27 1.25 1.21 1.05 0.75 0.49 0.36
0.07 0.11 0.16 0.15 0.14 0.16 0.25 0.41 0.58 0.65 0.82 1.00 0.85 0.65 0.55 0.48 0.49 0.54 0.58 0.61 0.58 0.52 0.43 0.49 0.62 0.72 0.83 1.00 1.08 1.09 1.04 1.06 1.12 1.21 1.15 0.91 0.59 0.39
0.16 0.19 0.23 0.23 0.20 0.25 0.37 0.55 0.69 0.82 0.88 0.91 0.73 0.54 0.43 0.42 0.44 0.44 0.41 0.40 0.42 0.45 0.42 0.47 0.63 0.75 0.76 0.74 0.94 1.05 1.07 1.10 1.13 1.16 1.12 0.99 0.73 0.56
0.20 0.29 0.31 0.28 0.34 0.48 0.63 0.76 0.85 0.91 0.89 0.76 0.61 0.51 0.40 0.36 0.35 0.34 0.32 0.33 0.36 0.35 0.35 0.38 0.50 0.66 0.70 0.67 0.80 0.88 1.02 1.27 1.29 1.23 1.13 0.95 0.75 0.58
0.16 0.30 0.40 0.43 0.56 0.73 0.84 0.90 0.93 0.96 0.85 0.68 0.56 0.46 0.36 0.31 0.31 0.29 0.29 0.30 0.32 0.34 0.34 0.37 0.46 0.56 0.64 0.64 0.72 0.86 0.96 1.34 1.48 1.30 1.17 1.09 0.92 0.74
0.18 0.25 0.34 0.43 0.58 0.73 0.82 0.86 0.88 0.88 0.81 0.66 0.54 0.44 0.36 0.32 0.31 0.29 0.28 0.28 0.30 0.33 0.36 0.40 0.47 0.50 0.54 0.60 0.75 0.90 1.04 1.26 1.38 1.20 1.04 1.10 1.08 0.91
0.23 0.33 0.43 0.51 0.63 0.73 0.81 0.87 0.85 0.80 0.72 0.64 0.56 0.48 0.40 0.35 0.33 0.30 0.27 0.27 0.30 0.32 0.34 0.36 0.34 0.30 0.33 0.50 0.80 0.90 0.92 1.09 1.14 0.99 0.80 0.85 1.00 0.91
0.27 0.41 0.54 0.64 0.71 0.75 0.76 0.78 0.81 0.79 0.70 0.61 0.54 0.48 0.41 0.34 0.31 0.29 0.26 0.24 0.25 0.26 0.25 0.22 0.19 0.14 0.16 0.45 0.80 0.96 0.88 0.86 0.82 0.78 0.69 0.62 0.74 0.79
0.32 0.49 0.60 0.68 0.73 0.75 0.72 0.69 0.71 0.71 0.64 0.55 0.49 0.43 0.38 0.32 0.28 0.26 0.23 0.19 0.17 0.16 0.16 0.15 0.16 0.16 0.17 0.32 0.73 1.00 0.89 0.66 0.56 0.58 0.58 0.54 0.65 0.72
0.34 0.48 0.58 0.63 0.64 0.65 0.64 0.63 0.62 0.62 0.58 0.51 0.47 0.43 0.38 0.31 0.26 0.21 0.16 0.13 0.13 0.12 0.14 0.18 0.20 0.18 0.11 0.11 0.37 0.67 0.78 0.75 0.55 0.46 0.44 0.45 0.48 0.44
0.32 0.43 0.52 0.55 0.54 0.50 0.48 0.48 0.49 0.48 0.48 0.46 0.44 0.40 0.35 0.29 0.23 0.18 0.15 0.13 0.12 0.11 0.11 0.14 0.14 0.11 0.08 0.11 0.25 0.45 0.54 0.51 0.48 0.48 0.44 0.32 0.24 0.28
0.32 0.35 0.41 0.45 0.44 0.40 0.36 0.33 0.34 0.37 0.37 0.38 0.37 0.33 0.28 0.23 0.18 0.14 0.11 0.09 0.08 0.07 0.07 0.08 0.08 0.07 0.08 0.09 0.14 0.21 0.24 0.22 0.19 0.24 0.39 0.40 0.28 0.30

GEFSNE_prec_meanprecacc_066.txt.gz
Total_Precipitation_Accumulation
0.06 0.06 0.07 0.07 0.08 0.09 0.11 0.14 0.19 0.17 0.09 0.03 0.02 0.03 0.06 0.14 0.24 0.28 0.27 0.19 0.13 0.09 0.07 0.05 0.05 0.05 0.06 0.06 0.07 0.08 0.10 0.15 0.25 0.38 0.49 0.59 0.65 0.69
0.09 0.09 0.09 0.09 0.09 0.09 0.10 0.12 0.18 0.25 0.21 0.07 0.03 0.05 0.09 0.14 0.28 0.33 0.36 0.32 0.23 0.15 0.10 0.07 0.06 0.07 0.07 0.08 0.09 0.10 0.13 0.17 0.24 0.33 0.45 0.57 0.66 0.76
0.07 0.08 0.08 0.08 0.10 0.09 0.10 0.11 0.13 0.19 0.23 0.11 0.05 0.06 0.12 0.19 0.27 0.30 0.31 0.30 0.26 0.24 0.17 0.13 0.12 0.10 0.10 0.10 0.12 0.16 0.20 0.25 0.30 0.36 0.48 0.61 0.69 0.72
0.07 0.07 0.07 0.08 0.09 0.08 0.09 0.10 0.12 0.18 0.26 0.22 0.11 0.07 0.10 0.17 0.23 0.25 0.23 0.22 0.24 0.28 0.21 0.15 0.13 0.13 0.17 0.14 0.12 0.15 0.21 0.31 0.38 0.44 0.52 0.62 0.67 0.68
0.07 0.08 0.08 0.09 0.08 0.08 0.11 0.12 0.14 0.18 0.26 0.28 0.18 0.12 0.15 0.21 0.31 0.31 0.27 0.32 0.29 0.25 0.21 0.16 0.14 0.16 0.39 0.45 0.22 0.18 0.21 0.33 0.40 0.45 0.55 0.60 0.59 0.57
0.06 0.08 0.10 0.10 0.11 0.14 0.15 0.17 0.22 0.25 0.25 0.28 0.22 0.16 0.18 0.23 0.33 0.41 0.39 0.36 0.34 0.22 0.24 0.22 0.20 0.26 0.63 1.19 0.66 0.34 0.28 0.33 0.38 0.44 0.49 0.49 0.45 0.41
0.05 0.08 0.10 0.11 0.15 0.17 0.18 0.21 0.27 0.32 0.33 0.35 0.30 0.25 0.22 0.29 0.38 0.43 0.42 0.40 0.34 0.26 0.32 0.28 0.43 0.75 1.26 1.92 1.49 0.85 0.61 0.51 0.44 0.44 0.45 0.45 0.40 0.32
0.07 0.09 0.07 0.06 0.08 0.08 0.13 0.20 0.29 0.36 0.42 0.46 0.43 0.37 0.29 0.33 0.42 0.48 0.49 0.48 0.38 0.25 0.30 0.33 0.62 1.33 2.02 2.44 2.06 1.30 0.97 0.76 0.63 0.64 0.64 0.55 0.42 0.32
0.10 0.09 0.07 0.06 0.09 0.13 0.14 0.16 0.21 0.29 0.43 0.56 0.55 0.43 0.39 0.41 0.56 0.63 0.56 0.55 0.50 0.35 0.36 0.41 0.73 1.57 1.98 2.26 2.10 1.44 1.14 0.96 0.85 0.87 0.84 0.64 0.43 0.32
0.08 0.09 0.12 0.13 0.13 0.13 0.13 0.18 0.23 0.29 0.39 0.48 0.51 0.46 0.46 0.48 0.56 0.60 0.56 0.55 0.43 0.32 0.40 0.53 0.83 1.47 1.64 1.76 1.90 1.50 1.22 1.09 1.02 0.99 0.91 0.67 0.47 0.36
0.06 0.08 0.11 0.14 0.12 0.12 0.18 0.26 0.30 0.38 0.52 0.69 0.70 0.64 0.64 0.63 0.54 0.50 0.55 0.60 0.52 0.34 0.37 0.54 0.78 1.15 1.30 1.40 1.47 1.44 1.32 1.23 1.14 1.07 0.94 0.69 0.51 0.42
0.05 0.08 0.10 0.10 0.11 0.14 0.21 0.33 0.45 0.52 0.72 0.91 0.85 0.77 0.69 0.67 0.62 0.54 0.61 0.71 0.66 0.50 0.40 0.50 0.65 0.84 1.08 1.20 1.13 1.10 1.17 1.28 1.25 1.22 1.06 0.76 0.50 0.37
0.08 0.11 0.16 0.15 0.15 0.17 0.27 0.43 0.60 0.66 0.83 1.02 0.86 0.65 0.55 0.48 0.50 0.55 0.59 0.61 0.59 0.54 0.44 0.52 0.64 0.74 0.87 1.01 1.08 1.09 1.05 1.08 1.13 1.22 1.17 0.93 0.61 0.40
0.17 0.20 0.23 0.23 0.20 0.26 0.39 0.56 0.71 0.83 0.89 0.92 0.74 0.54 0.44 0.42 0.44 0.44 0.41 0.40 0.43 0.45 0.43 0.48 0.65 0.78 0.80 0.76 0.95 1.06 1.08 1.12 1.15 1.18 1.14 1.01 0.75 0.58
0.22 0.31 0.32 0.29 0.35 0.49 0.64 0.77 0.86 0.92 0.89 0.76 0.62 0.51 0.40 0.36 0.35 0.35 0.32 0.33 0.36 0.36 0.35 0.38 0.51 0.67 0.72 0.69 0.83 0.91 1.05 1.30 1.32 1.26 1.16 0.99 0.79 0.61
0.19 0.32 0.42 0.44 0.57 0.74 0.85 0.90 0.94 0.96 0.85 0.68 0.56 0.46 0.36 0.31 0.31 0.29 0.29 0.30 0.32 0.34 0.34 0.37 0.46 0.57 0.65 0.65 0.75 0.89 1.00 1.39 1.53 1.34 1.21 1.14 0.96 0.78
0.21 0.28 0.37 0.45 0.60 0.74 0.84 0.87 0.88 0.89 0.81 0.66 0.54 0.44 0.36 0.32 0.31 0.29 0.28 0.28 0.31 0.33 0.36 0.41 0.47 0.50 0.55 0.61 0.77 0.93 1.07 1.30 1.42 1.24 1.07 1.13 1.11 0.94
0.26 0.35 0.46 0.54 0.64 0.74 0.82 0.89 0.86 0.80 0.73 0.65 0.56 0.48 0.41 0.35 0.33 0.30 0.27 0.27 0.30 0.32 0.35 0.36 0.34 0.30 0.34 0.51 0.81 0.92 0.95 1.12 1.17 1.02 0.83 0.87 1.02 0.93
0.29 0.43 0.56 0.65 0.71 0.75 0.76 0.78 0.81 0.79 0.70 0.61 0.54 0.48 0.41 0.34 0.31 0.29 0.26 0.25 0.25 0.26 0.26 0.22 0.19 0.15 0.18 0.47 0.82 0.98 0.91 0.89 0.85 0.80 0.71 0.65 0.77 0.81
0.33 0.50 0.62 0.68 0.73 0.75 0.72 0.69 0.71 0.71 0.64 0.55 0.49 0.43 0.38 0.32 0.28 0.26 0.23 0.19 0.18 0.16 0.16 0.15 0.17 0.17 0.19 0.35 0.76 1.02 0.91 0.69 0.58 0.60 0.61 0.57 0.67 0.76
0.35 0.48 0.58 0.63 0.64 0.65 0.65 0.63 0.62 0.63 0.58 0.51 0.47 0.43 0.38 0.31 0.26 0.21 0.16 0.13 0.13 0.13 0.14 0.18 0.21 0.20 0.12 0.13 0.39 0.70 0.81 0.77 0.57 0.48 0.46 0.47 0.50 0.46
0.32 0.44 0.52 0.55 0.54 0.50 0.48 0.48 0.49 0.48 0.48 0.46 0.44 0.40 0.35 0.29 0.23 0.18 0.15 0.13 0.13 0.12 0.12 0.14 0.14 0.11 0.09 0.12 0.28 0.48 0.56 0.53 0.51 0.51 0.46 0.35 0.28 0.33
0.32 0.36 0.41 0.45 0.44 0.40 0.36 0.33 0.34 0.37 0.38 0.38 0.37 0.34 0.28 0.23 0.19 0.14 0.12 0.09 0.08 0.07 0.07 0.09 0.08 0.07 0.08 0.10 0.15 0.23 0.26 0.24 0.21 0.25 0.41 0.44 0.34 0.37

GEFSNE_prec_meanprecacc_072.txt.gz
Total_Precipitation_Accumulation
0.07 0.07 0.08 0.08 0.09 0.10 0.11 0.14 0.19 0.17 0.10 0.03 0.03 0.03 0.06 0.14 0.24 0.28 0.27 0.19 0.13 0.09 0.07 0.05 0.05 0.05 0.06 0.06 0.07 0.08 0.10 0.15 0.25 0.38 0.50 0.60 0.67 0.72
0.10 0.10 0.10 0.09 0.09 0.09 0.10 0.12 0.18 0.25 0.21 0.07 0.03 0.05 0.09 0.15 0.28 0.33 0.36 0.32 0.23 0.15 0.10 0.07 0.06 0.07 0.07 0.08 0.09 0.10 0.13 0.17 0.24 0.33 0.47 0.59 0.68 0.79
0.08 0.08 0.08 0.08 0.10 0.09 0.10 0.11 0.13 0.20 0.23 0.12 0.05 0.06 0.12 0.20 0.27 0.30 0.31 0.30 0.26 0.24 0.17 0.13 0.12 0.10 0.10 0.11 0.12 0.16 0.20 0.25 0.30 0.37 0.49 0.62 0.71 0.74
0.07 0.08 0.07 0.08 0.09 0.08 0.09 0.10 0.13 0.19 0.27 0.23 0.12 0.08 0.11 0.18 0.23 0.25 0.23 0.22 0.25 0.28 0.21 0.15 0.13 0.13 0.17 0.14 0.12 0.15 0.21 0.31 0.38 0.44 0.53 0.62 0.68 0.69
0.07 0.08 0.08 0.09 0.09 0.09 0.12 0.13 0.16 0.20 0.27 0.30 0.19 0.13 0.15 0.22 0.32 0.32 0.28 0.34 0.30 0.26 0.21 0.17 0.15 0.16 0.39 0.45 0.22 0.18 0.21 0.33 0.40 0.45 0.56 0.61 0.60 0.58
0.06 0.08 0.10 0.11 0.13 0.17 0.18 0.20 0.25 0.28 0.28 0.30 0.24 0.17 0.19 0.24 0.35 0.43 0.40 0.38 0.35 0.23 0.25 0.22 0.21 0.26 0.64 1.19 0.66 0.34 0.28 0.33 0.38 0.44 0.49 0.49 0.45 0.41
0.05 0.09 0.10 0.11 0.16 0.19 0.19 0.23 0.31 0.36 0.37 0.38 0.32 0.27 0.24 0.32 0.41 0.46 0.44 0.42 0.35 0.28 0.34 0.31 0.45 0.77 1.29 1.94 1.50 0.85 0.62 0.51 0.44 0.44 0.46 0.45 0.40 0.32
0.07 0.09 0.07 0.07 0.08 0.09 0.13 0.21 0.30 0.38 0.44 0.49 0.45 0.40 0.32 0.38 0.48 0.52 0.53 0.52 0.41 0.28 0.33 0.35 0.64 1.36 2.06 2.47 2.08 1.30 0.97 0.76 0.63 0.64 0.65 0.55 0.42 0.32
0.10 0.10 0.07 0.07 0.10 0.15 0.16 0.17 0.23 0.30 0.45 0.58 0.58 0.47 0.44 0.47 0.61 0.67 0.61 0.60 0.55 0.39 0.41 0.44 0.76 1.61 2.00 2.27 2.10 1.44 1.14 0.96 0.85 0.87 0.85 0.64 0.43 0.32
0.09 0.10 0.13 0.15 0.14 0.13 0.14 0.20 0.26 0.33 0.43 0.51 0.56 0.51 0.49 0.52 0.60 0.64 0.60 0.58 0.46 0.37 0.46 0.57 0.86 1.50 1.66 1.79 1.91 1.50 1.22 1.09 1.02 0.99 0.91 0.67 0.47 0.37
0.06 0.09 0.11 0.15 0.13 0.12 0.18 0.29 0.34 0.45 0.56 0.71 0.71 0.66 0.66 0.64 0.55 0.52 0.60 0.65 0.57 0.38 0.42 0.59 0.82 1.18 1.31 1.43 1.50 1.44 1.33 1.24 1.14 1.07 0.95 0.69 0.51 0.42
0.06 0.09 0.11 0.10 0.11 0.15 0.22 0.37 0.50 0.58 0.76 0.95 0.88 0.81 0.74 0.71 0.63 0.57 0.66 0.76 0.71 0.54 0.44 0.54 0.69 0.88 1.11 1.22 1.16 1.14 1.21 1.30 1.27 1.22 1.06 0.76 0.50 0.40
0.09 0.13 0.18 0.16 0.15 0.18 0.29 0.46 0.64 0.68 0.86 1.07 0.91 0.72 0.62 0.55 0.55 0.59 0.63 0.66 0.64 0.59 0.49 0.56 0.69 0.79 0.91 1.04 1.10 1.12 1.09 1.13 1.18 1.27 1.20 0.94 0.62 0.42
0.18 0.22 0.25 0.24 0.22 0.27 0.40 0.58 0.72 0.86 0.95 0.99 0.80 0.61 0.50 0.47 0.48 0.46 0.43 0.43 0.46 0.49 0.47 0.53 0.70 0.84 0.85 0.80 0.98 1.08 1.12 1.17 1.20 1.24 1.21 1.06 0.79 0.61
0.24 0.32 0.33 0.30 0.36 0.52 0.66 0.78 0.89 0.98 0.97 0.83 0.68 0.57 0.45 0.40 0.39 0.38 0.35 0.37 0.40 0.39 0.37 0.42 0.56 0.73 0.77 0.74 0.88 0.95 1.09 1.33 1.36 1.32 1.23 1.06 0.85 0.67
0.21 0.35 0.44 0.47 0.60 0.78 0.90 0.96 1.02 1.02 0.89 0.75 0.62 0.52 0.42 0.37 0.36 0.32 0.32 0.34 0.36 0.39 0.37 0.40 0.50 0.61 0.70 0.70 0.80 0.94 1.04 1.44 1.57 1.38 1.27 1.20 1.02 0.83
0.22 0.32 0.42 0.50 0.65 0.80 0.90 0.94 0.96 0.96 0.88 0.73 0.61 0.51 0.42 0.38 0.36 0.33 0.32 0.32 0.35 0.37 0.40 0.44 0.50 0.54 0.59 0.64 0.81 0.97 1.11 1.34 1.46 1.28 1.12 1.19 1.16 0.98
0.28 0.39 0.50 0.56 0.66 0.77 0.86 0.93 0.91 0.85 0.77 0.70 0.63 0.56 0.48 0.41 0.39 0.36 0.32 0.31 0.35 0.37 0.39 0.39 0.38 0.34 0.38 0.54 0.84 0.95 0.99 1.16 1.21 1.06 0.87 0.91 1.06 0.98
0.32 0.46 0.59 0.67 0.73 0.77 0.79 0.81 0.84 0.83 0.74 0.67 0.61 0.55 0.48 0.40 0.37 0.36 0.32 0.30 0.30 0.31 0.30 0.26 0.22 0.19 0.21 0.51 0.86 1.01 0.94 0.93 0.88 0.84 0.76 0.69 0.82 0.86
0.35 0.51 0.63 0.69 0.74 0.77 0.75 0.71 0.73 0.74 0.68 0.59 0.54 0.49 0.44 0.38 0.34 0.33 0.29 0.23 0.22 0.21 0.21 0.20 0.19 0.20 0.23 0.41 0.81 1.07 0.94 0.71 0.61 0.63 0.64 0.62 0.73 0.81
0.36 0.49 0.59 0.64 0.65 0.66 0.66 0.64 0.64 0.65 0.60 0.54 0.50 0.46 0.41 0.36 0.32 0.26 0.22 0.16 0.17 0.17 0.18 0.23 0.25 0.21 0.16 0.18 0.45 0.76 0.86 0.80 0.59 0.50 0.48 0.50 0.52 0.49
0.33 0.44 0.53 0.55 0.54 0.51 0.48 0.48 0.49 0.50 0.49 0.47 0.45 0.42 0.38 0.33 0.26 0.22 0.19 0.17 0.18 0.16 0.16 0.18 0.18 0.14 0.12 0.16 0.33 0.54 0.62 0.57 0.53 0.52 0.48 0.37 0.31 0.37
0.32 0.36 0.41 0.45 0.44 0.40 0.36 0.34 0.34 0.37 0.38 0.38 0.38 0.35 0.31 0.27 0.21 0.17 0.15 0.12 0.12 0.12 0.11 0.13 0.13 0.12 0.12 0.13 0.20 0.28 0.31 0.28 0.24 0.28 0.43 0.47 0.39 0.44

GEFSNE_prec_meanprecacc_078.txt.gz
Total_Precipitation_Accumulation
0.08 0.08 0.09 0.09 0.09 0.10 0.12 0.15 0.20 0.18 0.11 0.04 0.03 0.04 0.06 0.14 0.24 0.28 0.27 0.19 0.13 0.09 0.07 0.05 0.05 0.05 0.06 0.06 0.07 0.08 0.11 0.15 0.26 0.39 0.52 0.63 0.71 0.76
0.10 0.10 0.10 0.09 0.10 0.10 0.10 0.13 0.19 0.26 0.22 0.08 0.04 0.05 0.09 0.15 0.28 0.33 0.36 0.32 0.23 0.15 0.10 0.08 0.06 0.07 0.07 0.08 0.09 0.10 0.13 0.17 0.25 0.34 0.48 0.61 0.70 0.83
0.08 0.09 0.08 0.09 0.10 0.10 0.10 0.12 0.14 0.21 0.24 0.12 0.06 0.06 0.13 0.21 0.28 0.31 0.32 0.31 0.27 0.25 0.17 0.14 0.12 0.10 0.10 0.11 0.12 0.16 0.20 0.25 0.31 0.37 0.49 0.63 0.72 0.76
0.07 0.08 0.08 0.08 0.09 0.09 0.10 0.11 0.14 0.20 0.29 0.24 0.13 0.09 0.12 0.19 0.26 0.28 0.24 0.23 0.25 0.28 0.22 0.15 0.13 0.13 0.17 0.15 0.12 0.15 0.21 0.31 0.38 0.44 0.53 0.63 0.68 0.70
0.07 0.08 0.09 0.10 0.09 0.11 0.14 0.15 0.18 0.22 0.30 0.33 0.21 0.16 0.17 0.24 0.35 0.34 0.30 0.37 0.31 0.26 0.22 0.17 0.15 0.16 0.39 0.45 0.22 0.18 0.21 0.33 0.40 0.45 0.56 0.61 0.60 0.58
0.06 0.09 0.10 0.11 0.13 0.18 0.19 0.22 0.27 0.31 0.32 0.35 0.28 0.21 0.23 0.29 0.40 0.48 0.44 0.42 0.38 0.24 0.27 0.23 0.22 0.27 0.64 1.19 0.66 0.34 0.29 0.33 0.38 0.44 0.49 0.49 0.45 0.41
0.06 0.09 0.11 0.11 0.16 0.19 0.19 0.24 0.32 0.38 0.40 0.42 0.36 0.30 0.28 0.37 0.47 0.51 0.48 0.45 0.38 0.32 0.38 0.33 0.49 0.82 1.34 1.98 1.52 0.87 0.62 0.52 0.44 0.44 0.46 0.45 0.40 0.32
0.09 0.10 0.08 0.07 0.08 0.09 0.14 0.21 0.30 0.39 0.46 0.51 0.48 0.44 0.37 0.44 0.54 0.58 0.58 0.57 0.45 0.32 0.37 0.38 0.68 1.41 2.11 2.52 2.10 1.31 0.97 0.76 0.63 0.64 0.65 0.55 0.42 0.32
0.12 0.12 0.09 0.08 0.12 0.17 0.17 0.17 0.25 0.33 0.46 0.59 0.61 0.52 0.49 0.53 0.67 0.71 0.66 0.65 0.59 0.43 0.46 0.47 0.81 1.66 2.04 2.29 2.10 1.44 1.14 0.96 0.85 0.87 0.85 0.64 0.43 0.32
0.10 0.12 0.15 0.18 0.16 0.13 0.14 0.22 0.32 0.42 0.48 0.54 0.60 0.55 0.52 0.54 0.63 0.67 0.64 0.62 0.51 0.44 0.53 0.62 0.90 1.53 1.68 1.83 1.93 1.50 1.22 1.09 1.02 0.99 0.91 0.67 0.47 0.37
0.09 0.11 0.12 0.17 0.13 0.12 0.19 0.31 0.39 0.52 0.60 0.73 0.72 0.67 0.66 0.65 0.56 0.53 0.63 0.71 0.62 0.44 0.47 0.62 0.84 1.20 1.33 1.47 1.53 1.45 1.33 1.24 1.14 1.07 0.95 0.69 0.51 0.42
0.09 0.14 0.13 0.10 0.11 0.15 0.22 0.38 0.54 0.62 0.79 0.99 0.94 0.87 0.81 0.77 0.66 0.58 0.71 0.82 0.77 0.59 0.48 0.57 0.73 0.92 1.13 1.24 1.19 1.18 1.27 1.34 1.28 1.23 1.07 0.77 0.51 0.40
0.12 0.18 0.21 0.16 0.16 0.18 0.29 0.47 0.65 0.68 0.87 1.12 1.00 0.82 0.73 0.66 0.64 0.66 0.71 0.74 0.71 0.66 0.54 0.60 0.73 0.84 0.96 1.07 1.12 1.15 1.14 1.20 1.25 1.33 1.25 0.96 0.62 0.43
0.22 0.25 0.27 0.25 0.22 0.27 0.40 0.58 0.72 0.86 1.00 1.09 0.90 0.70 0.59 0.56 0.56 0.53 0.51 0.52 0.54 0.56 0.52 0.58 0.76 0.90 0.90 0.84 1.01 1.11 1.15 1.21 1.26 1.31 1.29 1.12 0.83 0.63
0.26 0.33 0.33 0.30 0.37 0.55 0.67 0.78 0.90 1.04 1.06 0.93 0.78 0.66 0.54 0.49 0.46 0.44 0.42 0.44 0.47 0.44 0.40 0.46 0.62 0.79 0.83 0.80 0.92 0.99 1.12 1.36 1.40 1.37 1.29 1.14 0.94 0.74
0.23 0.37 0.46 0.49 0.62 0.82 0.95 1.03 1.10 1.11 0.96 0.84 0.73 0.62 0.50 0.45 0.43 0.39 0.39 0.41 0.43 0.44 0.41 0.44 0.54 0.67 0.75 0.75 0.84 0.97 1.08 1.48 1.61 1.44 1.33 1.28 1.10 0.89
0.23 0.37 0.52 0.59 0.73 0.88 0.99 1.04 1.06 1.05 0.96 0.83 0.72 0.60 0.52 0.47 0.44 0.38 0.38 0.39 0.42 0.43 0.44 0.48 0.55 0.59 0.63 0.67 0.83 0.99 1.13 1.38 1.51 1.33 1.17 1.26 1.22 1.03
0.29 0.46 0.59 0.63 0.72 0.82 0.91 0.99 0.97 0.92 0.84 0.79 0.73 0.66 0.57 0.50 0.47 0.42 0.38 0.38 0.42 0.43 0.44 0.43 0.42 0.38 0.43 0.58 0.85 0.96 1.00 1.19 1.24 1.10 0.91 0.96 1.12 1.02
0.35 0.53 0.66 0.72 0.77 0.81 0.82 0.85 0.90 0.88 0.80 0.73 0.68 0.62 0.54 0.48 0.44 0.41 0.37 0.36 0.36 0.37 0.35 0.29 0.25 0.22 0.26 0.57 0.90 1.02 0.96 0.95 0.90 0.86 0.79 0.74 0.87 0.90
0.39 0.55 0.66 0.72 0.77 0.79 0.77 0.73 0.76 0.78 0.71 0.63 0.58 0.53 0.48 0.44 0.40 0.37 0.33 0.27 0.27 0.26 0.26 0.23 0.21 0.22 0.27 0.46 0.88 1.12 0.95 0.71 0.62 0.64 0.66 0.65 0.76 0.84
0.37 0.50 0.60 0.65 0.66 0.66 0.67 0.65 0.65 0.67 0.63 0.57 0.53 0.49 0.45 0.39 0.36 0.30 0.25 0.18 0.21 0.22 0.23 0.27 0.27 0.22 0.19 0.24 0.52 0.82 0.89 0.80 0.60 0.50 0.48 0.51 0.54 0.50
0.34 0.45 0.54 0.56 0.55 0.51 0.49 0.49 0.50 0.50 0.50 0.48 0.47 0.45 0.41 0.35 0.29 0.24 0.21 0.21 0.22 0.20 0.20 0.22 0.21 0.17 0.17 0.22 0.38 0.59 0.66 0.59 0.54 0.53 0.48 0.38 0.32 0.39
0.32 0.36 0.42 0.45 0.44 0.40 0.36 0.34 0.34 0.37 0.38 0.38 0.39 0.38 0.33 0.29 0.23 0.18 0.16 0.13 0.13 0.13 0.13 0.16 0.16 0.15 0.15 0.17 0.23 0.31 0.34 0.31 0.27 0.30 0.44 0.47 0.40 0.47

GEFSNE_prec_meanprecacc_084.txt.gz
Total_Precipitation_Accumulation
0.08 0.08 0.09 0.09 0.10 0.11 0.12 0.16 0.21 0.19 0.11 0.05 0.04 0.04 0.07 0.14 0.25 0.29 0.28 0.20 0.14 0.10 0.07 0.06 0.05 0.06 0.06 0.07 0.07 0.09 0.11 0.16 0.27 0.41 0.53 0.66 0.74 0.80
0.10 0.10 0.10 0.09 0.10 0.10 0.10 0.13 0.19 0.26 0.22 0.08 0.04 0.05 0.10 0.15 0.29 0.33 0.36 0.32 0.24 0.15 0.11 0.08 0.07 0.07 0.08 0.09 0.10 0.12 0.14 0.18 0.26 0.35 0.49 0.62 0.72 0.85
0.08 0.09 0.08 0.09 0.10 0.10 0.10 0.12 0.14 0.21 0.25 0.13 0.06 0.07 0.13 0.21 0.29 0.31 0.32 0.31 0.27 0.25 0.18 0.15 0.13 0.11 0.11 0.12 0.13 0.17 0.21 0.26 0.31 0.38 0.50 0.64 0.74 0.77
0.07 0.08 0.08 0.08 0.09 0.09 0.10 0.11 0.14 0.20 0.29 0.24 0.13 0.09 0.12 0.19 0.26 0.28 0.24 0.23 0.26 0.28 0.22 0.16 0.13 0.13 0.18 0.15 0.13 0.16 0.22 0.31 0.39 0.44 0.53 0.63 0.69 0.71
0.07 0.08 0.09 0.10 0.09 0.11 0.14 0.15 0.18 0.22 0.30 0.33 0.21 0.16 0.17 0.24 0.35 0.35 0.30 0.37 0.31 0.26 0.22 0.17 0.16 0.17 0.40 0.46 0.22 0.18 0.21 0.33 0.40 0.45 0.56 0.62 0.61 0.59
0.06 0.09 0.10 0.11 0.13 0.18 0.19 0.22 0.27 0.31 0.32 0.35 0.28 0.21 0.23 0.29 0.41 0.48 0.44 0.42 0.38 0.24 0.27 0.24 0.22 0.28 0.65 1.20 0.67 0.35 0.29 0.33 0.39 0.44 0.49 0.49 0.45 0.41
0.06 0.09 0.11 0.11 0.16 0.19 0.19 0.24 0.32 0.38 0.40 0.42 0.36 0.30 0.28 0.37 0.47 0.51 0.48 0.45 0.38 0.32 0.38 0.33 0.49 0.82 1.34 1.99 1.53 0.88 0.63 0.52 0.45 0.45 0.46 0.45 0.40 0.32
0.09 0.10 0.08 0.07 0.08 0.09 0.14 0.21 0.30 0.39 0.46 0.51 0.48 0.44 0.37 0.44 0.55 0.58 0.58 0.57 0.45 0.32 0.37 0.38 0.68 1.41 2.11 2.52 2.10 1.31 0.98 0.77 0.63 0.64 0.65 0.56 0.42 0.32
0.12 0.12 0.09 0.08 0.12 0.17 0.17 0.17 0.25 0.33 0.46 0.59 0.61 0.52 0.49 0.54 0.67 0.71 0.66 0.65 0.59 0.43 0.46 0.47 0.81 1.66 2.04 2.29 2.11 1.44 1.14 0.96 0.85 0.87 0.85 0.64 0.43 0.32
0.10 0.12 0.15 0.18 0.16 0.13 0.14 0.22 0.32 0.42 0.48 0.54 0.61 0.55 0.53 0.55 0.63 0.67 0.64 0.62 0.51 0.45 0.53 0.62 0.90 1.53 1.68 1.83 1.93 1.50 1.22 1.09 1.02 0.99 0.91 0.67 0.47 0.37
0.09 0.11 0.12 0.17 0.13 0.12 0.19 0.31 0.39 0.52 0.60 0.73 0.73 0.67 0.66 0.65 0.56 0.53 0.63 0.71 0.62 0.44 0.47 0.62 0.85 1.20 1.33 1.47 1.54 1.45 1.33 1.24 1.15 1.07 0.95 0.69 0.52 0.42
0.10 0.14 0.13 0.11 0.11 0.15 0.22 0.38 0.54 0.62 0.79 0.99 0.94 0.87 0.82 0.78 0.66 0.59 0.71 0.82 0.78 0.59 0.49 0.57 0.73 0.92 1.14 1.24 1.20 1.18 1.27 1.34 1.28 1.24 1.07 0.77 0.51 0.40
0.12 0.18 0.22 0.16 0.16 0.18 0.29 0.47 0.65 0.68 0.87 1.12 1.01 0.82 0.74 0.66 0.65 0.66 0.71 0.74 0.71 0.67 0.55 0.61 0.74 0.85 0.98 1.08 1.12 1.16 1.15 1.20 1.25 1.33 1.26 0.97 0.63 0.44
0.22 0.25 0.27 0.25 0.22 0.27 0.40 0.59 0.73 0.86 1.00 1.09 0.91 0.71 0.60 0.57 0.56 0.54 0.52 0.52 0.54 0.56 0.53 0.59 0.77 0.91 0.92 0.85 1.01 1.11 1.15 1.21 1.26 1.32 1.31 1.13 0.85 0.65
0.26 0.33 0.33 0.30 0.37 0.55 0.67 0.78 0.90 1.04 1.07 0.94 0.78 0.67 0.55 0.49 0.46 0.45 0.43 0.45 0.48 0.44 0.40 0.46 0.63 0.80 0.84 0.80 0.93 0.99 1.12 1.36 1.41 1.38 1.31 1.16 0.97 0.76
0.23 0.38 0.46 0.49 0.63 0.83 0.96 1.04 1.11 1.12 0.97 0.85 0.73 0.62 0.50 0.45 0.43 0.39 0.39 0.41 0.43 0.44 0.41 0.44 0.55 0.67 0.75 0.75 0.84 0.98 1.09 1.48 1.62 1.45 1.35 1.30 1.12 0.92
0.23 0.37 0.52 0.59 0.74 0.90 1.01 1.05 1.07 1.06 0.97 0.84 0.72 0.61 0.52 0.47 0.44 0.39 0.38 0.39 0.42 0.43 0.44 0.48 0.55 0.60 0.63 0.67 0.83 0.99 1.14 1.38 1.52 1.34 1.18 1.27 1.24 1.05
0.29 0.46 0.59 0.63 0.72 0.82 0.91 0.99 0.97 0.92 0.84 0.79 0.73 0.66 0.58 0.50 0.47 0.42 0.38 0.39 0.42 0.43 0.44 0.43 0.42 0.39 0.44 0.58 0.85 0.96 1.01 1.19 1.25 1.10 0.92 0.97 1.14 1.03
0.35 0.54 0.66 0.72 0.77 0.81 0.82 0.85 0.90 0.88 0.80 0.74 0.68 0.62 0.54 0.48 0.45 0.42 0.37 0.36 0.36 0.37 0.35 0.29 0.25 0.22 0.26 0.57 0.91 1.03 0.96 0.95 0.91 0.87 0.79 0.75 0.88 0.91
0.39 0.55 0.66 0.72 0.77 0.79 0.77 0.73 0.76 0.78 0.71 0.63 0.58 0.53 0.49 0.45 0.41 0.38 0.34 0.27 0.27 0.26 0.26 0.23 0.21 0.22 0.27 0.47 0.89 1.12 0.95 0.71 0.62 0.64 0.66 0.65 0.77 0.85
0.37 0.50 0.60 0.65 0.66 0.66 0.67 0.65 0.65 0.67 0.63 0.57 0.53 0.49 0.45 0.40 0.37 0.30 0.25 0.18 0.21 0.22 0.23 0.27 0.28 0.22 0.19 0.25 0.52 0.83 0.89 0.80 0.60 0.50 0.49 0.51 0.54 0.51
0.34 0.45 0.54 0.56 0.55 0.51 0.49 0.49 0.50 0.50 0.50 0.48 0.47 0.45 0.41 0.36 0.29 0.24 0.21 0.21 0.22 0.20 0.20 0.22 0.21 0.18 0.17 0.22 0.39 0.59 0.66 0.59 0.54 0.53 0.48 0.38 0.32 0.39
0.32 0.36 0.42 0.45 0.44 0.40 0.36 0.34 0.34 0.37 0.38 0.38 0.39 0.38 0.33 0.29 0.23 0.18 0.16 0.13 0.13 0.13 0.13 0.16 0.16 0.15 0.15 0.17 0.23 0.31 0.34 0.32 0.27 0.30 0.44 0.48 0.40 0.47

GEFSNE_prec_meanprecacc_090.txt.gz
Total_Precipitation_Accumulation
0.09 0.09 0.09 0.09 0.10 0.11 0.12 0.16 0.21 0.20 0.12 0.05 0.04 0.04 0.07 0.15 0.26 0.29 0.29 0.21 0.14 0.10 0.07 0.06 0.05 0.06 0.06 0.07 0.08 0.10 0.12 0.17 0.29 0.43 0.57 0.71 0.80 0.87
0.10 0.11 0.10 0.10 0.10 0.10 0.10 0.13 0.19 0.27 0.23 0.09 0.04 0.05 0.10 0.16 0.30 0.34 0.37 0.33 0.24 0.16 0.11 0.08 0.07 0.07 0.08 0.10 0.11 0.12 0.15 0.18 0.26 0.36 0.50 0.64 0.75 0.88
0.08 0.09 0.09 0.09 0.10 0.10 0.10 0.12 0.14 0.21 0.25 0.13 0.06 0.07 0.14 0.22 0.29 0.32 0.32 0.31 0.27 0.25 0.18 0.15 0.13 0.11 0.11 0.12 0.14 0.17 0.21 0.26 0.32 0.39 0.51 0.66 0.75 0.79
0.08 0.08 0.08 0.08 0.09 0.09 0.10 0.11 0.14 0.20 0.29 0.24 0.13 0.09 0.12 0.19 0.26 0.28 0.24 0.23 0.26 0.28 0.22 0.16 0.13 0.13 0.18 0.15 0.13 0.16 0.22 0.31 0.39 0.45 0.55 0.65 0.71 0.74
0.07 0.08 0.09 0.10 0.09 0.11 0.14 0.15 0.18 0.22 0.30 0.33 0.21 0.16 0.17 0.24 0.35 0.35 0.30 0.38 0.31 0.26 0.22 0.17 0.16 0.17 0.40 0.46 0.22 0.18 0.21 0.33 0.40 0.46 0.57 0.63 0.62 0.61
0.06 0.09 0.10 0.11 0.13 0.18 0.19 0.22 0.27 0.31 0.32 0.35 0.28 0.21 0.23 0.29 0.41 0.48 0.44 0.42 0.38 0.24 0.27 0.24 0.22 0.28 0.65 1.20 0.67 0.35 0.29 0.33 0.39 0.44 0.49 0.49 0.46 0.42
0.06 0.09 0.11 0.11 0.16 0.19 0.19 0.24 0.32 0.38 0.40 0.42 0.36 0.30 0.28 0.37 0.47 0.51 0.48 0.45 0.38 0.32 0.38 0.33 0.49 0.82 1.34 1.99 1.53 0.88 0.63 0.52 0.45 0.45 0.46 0.45 0.40 0.32
0.09 0.10 0.08 0.07 0.08 0.09 0.14 0.21 0.30 0.39 0.46 0.51 0.48 0.44 0.37 0.44 0.55 0.58 0.59 0.57 0.45 0.32 0.37 0.38 0.68 1.41 2.11 2.52 2.10 1.31 0.98 0.77 0.63 0.64 0.65 0.56 0.42 0.32
0.12 0.12 0.09 0.08 0.12 0.17 0.17 0.17 0.25 0.33 0.46 0.59 0.61 0.52 0.49 0.54 0.67 0.72 0.66 0.65 0.60 0.43 0.46 0.47 0.81 1.66 2.04 2.29 2.11 1.44 1.14 0.96 0.85 0.88 0.85 0.64 0.44 0.32
0.10 0.12 0.15 0.18 0.16 0.13 0.14 0.22 0.32 0.42 0.48 0.54 0.61 0.55 0.53 0.55 0.63 0.67 0.64 0.62 0.51 0.45 0.53 0.62 0.90 1.53 1.68 1.83 1.93 1.50 1.22 1.09 1.02 1.00 0.92 0.68 0.47 0.37
0.09 0.11 0.12 0.17 0.13 0.12 0.19 0.31 0.39 0.52 0.60 0.73 0.73 0.67 0.66 0.65 0.56 0.53 0.63 0.71 0.62 0.44 0.48 0.62 0.85 1.20 1.33 1.47 1.54 1.45 1.33 1.24 1.15 1.08 0.95 0.70 0.52 0.43
0.10 0.14 0.13 0.11 0.11 0.15 0.22 0.38 0.54 0.62 0.79 0.99 0.94 0.87 0.82 0.78 0.66 0.59 0.71 0.83 0.78 0.59 0.49 0.57 0.73 0.92 1.14 1.24 1.20 1.18 1.27 1.34 1.29 1.24 1.08 0.78 0.52 0.41
0.12 0.18 0.22 0.16 0.16 0.18 0.29 0.47 0.65 0.68 0.87 1.12 1.01 0.83 0.74 0.67 0.65 0.66 0.71 0.75 0.71 0.67 0.55 0.61 0.74 0.85 0.98 1.08 1.12 1.16 1.15 1.20 1.26 1.34 1.26 0.98 0.65 0.45
0.22 0.25 0.27 0.25 0.22 0.27 0.40 0.59 0.73 0.87 1.01 1.09 0.91 0.71 0.60 0.57 0.57 0.54 0.52 0.52 0.54 0.56 0.53 0.59 0.77 0.91 0.92 0.85 1.02 1.11 1.16 1.22 1.26 1.32 1.31 1.15 0.87 0.67
0.26 0.33 0.33 0.30 0.37 0.55 0.68 0.79 0.91 1.05 1.07 0.94 0.78 0.67 0.55 0.49 0.46 0.45 0.43 0.45 0.48 0.44 0.41 0.46 0.63 0.80 0.84 0.81 0.93 0.99 1.13 1.36 1.41 1.39 1.32 1.17 0.98 0.77
0.23 0.38 0.46 0.50 0.63 0.83 0.96 1.05 1.11 1.12 0.97 0.85 0.73 0.62 0.51 0.45 0.43 0.39 0.39 0.41 0.43 0.44 0.41 0.44 0.55 0.67 0.75 0.75 0.85 0.98 1.09 1.49 1.62 1.45 1.35 1.31 1.13 0.93
0.23 0.37 0.52 0.59 0.74 0.90 1.01 1.05 1.07 1.06 0.97 0.84 0.72 0.61 0.52 0.47 0.44 0.39 0.38 0.39 0.42 0.43 0.44 0.48 0.55 0.60 0.63 0.67 0.83 1.00 1.14 1.38 1.52 1.34 1.18 1.27 1.24 1.05
0.29 0.46 0.59 0.63 0.72 0.82 0.91 0.99 0.97 0.92 0.84 0.79 0.73 0.66 0.58 0.50 0.47 0.42 0.38 0.39 0.42 0.43 0.44 0.43 0.42 0.39 0.44 0.58 0.85 0.96 1.01 1.19 1.25 1.11 0.92 0.97 1.14 1.04
0.35 0.54 0.66 0.72 0.77 0.81 0.82 0.85 0.90 0.88 0.80 0.74 0.68 0.62 0.54 0.48 0.45 0.42 0.37 0.36 0.36 0.37 0.35 0.29 0.25 0.22 0.26 0.57 0.91 1.03 0.96 0.95 0.91 0.87 0.79 0.75 0.89 0.92
0.39 0.55 0.66 0.72 0.77 0.79 0.77 0.73 0.76 0.78 0.72 0.63 0.58 0.53 0.49 0.45 0.41 0.38 0.34 0.27 0.27 0.26 0.26 0.23 0.21 0.22 0.27 0.47 0.89 1.12 0.95 0.71 0.62 0.65 0.66 0.65 0.77 0.85
0.37 0.50 0.60 0.65 0.66 0.66 0.67 0.65 0.65 0.67 0.63 0.57 0.53 0.49 0.45 0.40 0.37 0.30 0.25 0.18 0.21 0.22 0.23 0.27 0.28 0.22 0.19 0.25 0.52 0.83 0.89 0.81 0.60 0.51 0.49 0.51 0.54 0.51
0.34 0.45 0.54 0.56 0.55 0.51 0.49 0.49 0.50 0.50 0.50 0.48 0.47 0.45 0.41 0.36 0.29 0.24 0.21 0.21 0.22 0.20 0.20 0.22 0.21 0.18 0.17 0.22 0.39 0.59 0.66 0.59 0.54 0.53 0.49 0.38 0.32 0.39
0.32 0.36 0.42 0.45 0.44 0.40 0.36 0.34 0.34 0.37 0.38 0.38 0.39 0.38 0.33 0.29 0.23 0.18 0.16 0.13 0.13 0.14 0.13 0.16 0.16 0.15 0.15 0.17 0.23 0.31 0.34 0.32 0.27 0.30 0.44 0.48 0.41 0.47

GEFSNE_prec_meanprecacc_096.txt.gz
Total_Precipitation_Accumulation
0.09 0.09 0.10 0.10 0.10 0.11 0.12 0.16 0.22 0.20 0.12 0.05 0.04 0.05 0.09 0.17 0.30 0.32 0.30 0.21 0.15 0.10 0.07 0.06 0.05 0.06 0.06 0.07 0.08 0.10 0.12 0.17 0.29 0.43 0.58 0.72 0.82 0.90
0.10 0.11 0.10 0.10 0.10 0.10 0.11 0.13 0.19 0.27 0.23 0.09 0.05 0.06 0.11 0.17 0.32 0.36 0.38 0.34 0.24 0.16 0.11 0.08 0.07 0.07 0.08 0.10 0.11 0.12 0.15 0.18 0.26 0.36 0.50 0.65 0.76 0.90
0.09 0.09 0.09 0.09 0.10 0.10 0.11 0.12 0.14 0.21 0.25 0.13 0.07 0.07 0.14 0.22 0.30 0.33 0.33 0.31 0.28 0.25 0.18 0.15 0.13 0.11 0.11 0.12 0.14 0.17 0.21 0.26 0.32 0.39 0.51 0.66 0.76 0.81
0.08 0.08 0.08 0.08 0.09 0.09 0.10 0.12 0.14 0.20 0.29 0.25 0.13 0.09 0.13 0.19 0.26 0.29 0.25 0.24 0.26 0.29 0.22 0.16 0.13 0.13 0.18 0.15 0.13 0.16 0.22 0.31 0.39 0.45 0.55 0.65 0.72 0.75
0.08 0.08 0.09 0.10 0.10 0.11 0.14 0.15 0.18 0.22 0.30 0.33 0.21 0.16 0.17 0.24 0.35 0.35 0.30 0.38 0.31 0.26 0.22 0.18 0.16 0.17 0.40 0.46 0.22 0.18 0.21 0.33 0.40 0.46 0.57 0.63 0.63 0.61
0.06 0.09 0.11 0.12 0.14 0.18 0.19 0.23 0.28 0.31 0.32 0.35 0.28 0.22 0.24 0.29 0.41 0.48 0.45 0.42 0.38 0.24 0.27 0.24 0.22 0.28 0.65 1.20 0.67 0.35 0.29 0.33 0.39 0.44 0.49 0.49 0.46 0.42
0.06 0.10 0.11 0.11 0.16 0.19 0.19 0.24 0.32 0.39 0.41 0.43 0.37 0.31 0.29 0.38 0.47 0.51 0.49 0.46 0.39 0.32 0.38 0.34 0.49 0.83 1.35 2.00 1.54 0.88 0.63 0.52 0.45 0.45 0.46 0.45 0.40 0.32
0.09 0.11 0.09 0.08 0.09 0.09 0.14 0.21 0.30 0.39 0.47 0.52 0.50 0.46 0.39 0.45 0.56 0.59 0.59 0.58 0.46 0.33 0.38 0.39 0.69 1.43 2.13 2.53 2.11 1.31 0.98 0.77 0.63 0.64 0.65 0.56 0.43 0.32
0.13 0.12 0.09 0.08 0.12 0.17 0.17 0.18 0.26 0.33 0.46 0.60 0.63 0.55 0.52 0.56 0.69 0.73 0.68 0.67 0.61 0.45 0.47 0.49 0.83 1.69 2.05 2.29 2.11 1.44 1.14 0.96 0.85 0.88 0.85 0.64 0.44 0.32
0.11 0.13 0.16 0.20 0.16 0.14 0.14 0.22 0.33 0.43 0.49 0.54 0.62 0.57 0.54 0.56 0.64 0.68 0.65 0.63 0.53 0.48 0.54 0.63 0.92 1.56 1.70 1.85 1.93 1.50 1.22 1.09 1.02 1.00 0.92 0.68 0.47 0.37
0.09 0.11 0.13 0.18 0.13 0.12 0.19 0.32 0.41 0.54 0.60 0.73 0.73 0.67 0.66 0.65 0.56 0.53 0.65 0.73 0.65 0.47 0.49 0.64 0.87 1.22 1.35 1.50 1.56 1.46 1.34 1.24 1.15 1.08 0.96 0.70 0.52 0.43
0.11 0.15 0.13 0.11 0.11 0.15 0.23 0.40 0.56 0.64 0.80 1.00 0.95 0.89 0.83 0.79 0.67 0.60 0.74 0.85 0.81 0.63 0.51 0.60 0.76 0.95 1.16 1.27 1.23 1.21 1.30 1.35 1.29 1.25 1.08 0.78 0.52 0.43
0.14 0.19 0.22 0.16 0.16 0.18 0.29 0.48 0.66 0.69 0.88 1.13 1.02 0.85 0.77 0.70 0.68 0.69 0.73 0.77 0.75 0.71 0.57 0.63 0.77 0.88 1.00 1.11 1.15 1.18 1.17 1.23 1.28 1.36 1.27 0.99 0.65 0.46
0.24 0.26 0.27 0.25 0.22 0.27 0.40 0.59 0.73 0.87 1.02 1.11 0.93 0.73 0.61 0.59 0.59 0.55 0.53 0.54 0.57 0.59 0.55 0.61 0.80 0.95 0.95 0.89 1.05 1.13 1.17 1.23 1.29 1.35 1.35 1.17 0.89 0.67
0.27 0.33 0.33 0.30 0.37 0.55 0.68 0.79 0.91 1.05 1.08 0.95 0.80 0.69 0.56 0.50 0.47 0.47 0.45 0.47 0.50 0.46 0.41 0.47 0.65 0.83 0.88 0.85 0.97 1.02 1.15 1.38 1.43 1.41 1.36 1.21 1.01 0.79
0.24 0.38 0.47 0.50 0.64 0.83 0.97 1.05 1.12 1.13 0.98 0.86 0.74 0.64 0.52 0.46 0.45 0.40 0.42 0.44 0.46 0.47 0.42 0.44 0.56 0.70 0.79 0.79 0.88 1.01 1.11 1.51 1.64 1.47 1.39 1.35 1.16 0.95
0.24 0.38 0.54 0.60 0.75 0.90 1.01 1.05 1.07 1.06 0.97 0.84 0.73 0.62 0.54 0.48 0.46 0.40 0.39 0.41 0.43 0.45 0.46 0.49 0.56 0.60 0.65 0.69 0.85 1.02 1.16 1.41 1.54 1.36 1.21 1.31 1.28 1.07
0.29 0.48 0.60 0.64 0.73 0.82 0.91 0.99 0.97 0.92 0.85 0.79 0.74 0.67 0.59 0.51 0.48 0.43 0.40 0.40 0.43 0.44 0.45 0.44 0.43 0.41 0.46 0.60 0.86 0.97 1.02 1.21 1.28 1.13 0.94 1.00 1.17 1.06
0.36 0.55 0.67 0.73 0.77 0.81 0.82 0.85 0.90 0.89 0.80 0.74 0.69 0.63 0.55 0.49 0.45 0.43 0.38 0.36 0.37 0.38 0.36 0.30 0.26 0.24 0.28 0.60 0.92 1.03 0.97 0.97 0.93 0.90 0.82 0.77 0.91 0.94
0.40 0.56 0.66 0.72 0.77 0.79 0.77 0.73 0.76 0.78 0.72 0.63 0.58 0.53 0.49 0.46 0.41 0.38 0.34 0.28 0.27 0.26 0.26 0.23 0.22 0.22 0.28 0.48 0.90 1.13 0.96 0.72 0.63 0.67 0.68 0.68 0.79 0.86
0.37 0.50 0.60 0.65 0.66 0.66 0.67 0.65 0.65 0.67 0.63 0.57 0.53 0.49 0.45 0.40 0.37 0.30 0.26 0.18 0.21 0.22 0.23 0.27 0.28 0.22 0.19 0.25 0.53 0.84 0.90 0.81 0.60 0.51 0.49 0.52 0.55 0.52
0.34 0.45 0.54 0.56 0.55 0.51 0.49 0.49 0.50 0.50 0.50 0.48 0.47 0.45 0.41 0.36 0.29 0.24 0.21 0.21 0.22 0.20 0.20 0.22 0.21 0.18 0.18 0.23 0.39 0.60 0.67 0.60 0.54 0.53 0.49 0.38 0.32 0.40
0.32 0.36 0.42 0.45 0.44 0.40 0.36 0.34 0.34 0.37 0.38 0.38 0.39 0.38 0.33 0.29 0.23 0.18 0.16 0.13 0.13 0.14 0.13 0.16 0.16 0.15 0.15 0.17 0.23 0.31 0.34 0.32 0.28 0.31 0.45 0.48 0.41 0.47

GEFSNE_prec_meanprecacc_102.txt.gz
Total_Precipitation_Accumulation
0.12 0.11 0.12 0.11 0.12 0.13 0.14 0.18 0.24 0.23 0.15 0.08 0.07 0.07 0.10 0.18 0.32 0.34 0.31 0.22 0.15 0.10 0.07 0.06 0.05 0.06 0.06 0.07 0.08 0.10 0.12 0.17 0.29 0.44 0.58 0.72 0.82 0.90
0.12 0.12 0.11 0.10 0.10 0.10 0.11 0.14 0.20 0.28 0.24 0.10 0.06 0.07 0.12 0.17 0.33 0.37 0.39 0.34 0.24 0.16 0.11 0.08 0.07 0.07 0.08 0.10 0.11 0.12 0.15 0.18 0.26 0.36 0.51 0.65 0.76 0.91
0.10 0.10 0.10 0.09 0.10 0.10 0.11 0.12 0.15 0.22 0.26 0.14 0.07 0.08 0.15 0.23 0.30 0.33 0.34 0.32 0.28 0.26 0.18 0.15 0.13 0.11 0.11 0.12 0.14 0.17 0.21 0.26 0.32 0.39 0.51 0.66 0.76 0.81
0.10 0.10 0.09 0.09 0.10 0.09 0.11 0.12 0.14 0.21 0.29 0.25 0.14 0.10 0.13 0.20 0.26 0.29 0.25 0.24 0.27 0.29 0.22 0.16 0.13 0.13 0.18 0.15 0.13 0.16 0.22 0.31 0.39 0.45 0.55 0.65 0.72 0.75
0.09 0.10 0.10 0.11 0.10 0.12 0.14 0.16 0.19 0.22 0.31 0.33 0.22 0.17 0.18 0.25 0.36 0.35 0.30 0.38 0.31 0.26 0.22 0.18 0.16 0.17 0.40 0.46 0.22 0.18 0.21 0.33 0.40 0.46 0.57 0.63 0.63 0.61
0.07 0.10 0.12 0.13 0.15 0.19 0.20 0.24 0.29 0.32 0.33 0.36 0.29 0.23 0.26 0.30 0.43 0.50 0.46 0.43 0.38 0.24 0.27 0.24 0.23 0.28 0.65 1.20 0.67 0.35 0.29 0.33 0.39 0.44 0.49 0.49 0.46 0.42
0.07 0.10 0.11 0.12 0.17 0.19 0.20 0.25 0.33 0.40 0.42 0.45 0.40 0.34 0.33 0.42 0.50 0.53 0.50 0.47 0.41 0.33 0.39 0.35 0.50 0.84 1.36 2.00 1.54 0.88 0.63 0.52 0.45 0.45 0.46 0.45 0.40 0.32
0.11 0.12 0.09 0.08 0.09 0.10 0.14 0.21 0.31 0.40 0.48 0.55 0.53 0.51 0.45 0.50 0.59 0.61 0.61 0.60 0.49 0.35 0.39 0.41 0.70 1.45 2.15 2.54 2.11 1.31 0.98 0.77 0.63 0.64 0.65 0.56 0.43 0.32
0.15 0.15 0.11 0.09 0.13 0.18 0.17 0.18 0.27 0.33 0.46 0.60 0.65 0.59 0.56 0.60 0.71 0.75 0.70 0.70 0.66 0.48 0.50 0.54 0.86 1.72 2.07 2.29 2.11 1.44 1.14 0.96 0.85 0.88 0.85 0.64 0.44 0.32
0.13 0.15 0.20 0.23 0.17 0.14 0.15 0.26 0.37 0.45 0.50 0.55 0.64 0.59 0.56 0.57 0.64 0.68 0.67 0.68 0.62 0.55 0.58 0.68 0.97 1.59 1.72 1.86 1.93 1.50 1.22 1.09 1.03 1.00 0.92 0.68 0.47 0.37
0.10 0.12 0.14 0.20 0.14 0.12 0.21 0.38 0.47 0.59 0.61 0.73 0.73 0.67 0.66 0.65 0.56 0.54 0.68 0.79 0.73 0.54 0.52 0.67 0.92 1.26 1.39 1.54 1.57 1.46 1.34 1.25 1.15 1.08 0.96 0.70 0.52 0.44
0.15 0.18 0.14 0.11 0.11 0.15 0.24 0.44 0.60 0.67 0.82 1.01 0.97 0.91 0.85 0.80 0.67 0.61 0.79 0.91 0.87 0.69 0.56 0.63 0.80 0.98 1.21 1.31 1.26 1.23 1.32 1.37 1.29 1.25 1.08 0.78 0.52 0.44
0.18 0.23 0.24 0.16 0.16 0.18 0.29 0.49 0.67 0.69 0.90 1.16 1.05 0.88 0.81 0.74 0.72 0.73 0.79 0.83 0.80 0.75 0.60 0.65 0.80 0.92 1.05 1.16 1.18 1.20 1.20 1.27 1.32 1.39 1.29 0.99 0.65 0.46
0.29 0.29 0.28 0.25 0.22 0.27 0.40 0.59 0.73 0.87 1.03 1.12 0.95 0.76 0.64 0.61 0.62 0.58 0.57 0.58 0.61 0.62 0.58 0.64 0.85 1.00 1.01 0.94 1.09 1.16 1.19 1.25 1.31 1.39 1.40 1.18 0.89 0.68
0.29 0.34 0.33 0.30 0.37 0.56 0.68 0.79 0.91 1.06 1.09 0.96 0.82 0.71 0.58 0.51 0.48 0.48 0.47 0.50 0.53 0.47 0.43 0.49 0.69 0.88 0.94 0.90 1.01 1.06 1.17 1.40 1.45 1.44 1.41 1.26 1.04 0.82
0.25 0.39 0.47 0.50 0.64 0.84 0.97 1.06 1.13 1.14 0.98 0.86 0.75 0.65 0.53 0.48 0.46 0.42 0.44 0.46 0.49 0.49 0.43 0.45 0.57 0.73 0.84 0.83 0.93 1.05 1.14 1.54 1.67 1.49 1.43 1.40 1.19 0.97
0.25 0.40 0.56 0.62 0.76 0.91 1.02 1.06 1.08 1.07 0.98 0.85 0.74 0.64 0.55 0.49 0.46 0.40 0.40 0.42 0.45 0.47 0.47 0.50 0.56 0.62 0.67 0.72 0.88 1.04 1.18 1.43 1.57 1.39 1.25 1.36 1.31 1.09
0.30 0.50 0.62 0.65 0.73 0.83 0.92 0.99 0.98 0.93 0.86 0.80 0.75 0.68 0.59 0.52 0.49 0.44 0.40 0.41 0.44 0.45 0.46 0.45 0.44 0.42 0.47 0.61 0.87 0.98 1.03 1.23 1.29 1.16 0.97 1.03 1.21 1.08
0.37 0.56 0.67 0.73 0.78 0.81 0.82 0.85 0.90 0.89 0.81 0.74 0.69 0.63 0.55 0.49 0.45 0.43 0.38 0.37 0.37 0.38 0.36 0.30 0.27 0.25 0.30 0.62 0.93 1.03 0.97 0.97 0.94 0.92 0.84 0.79 0.94 0.95
0.41 0.56 0.67 0.72 0.77 0.79 0.77 0.73 0.76 0.78 0.72 0.64 0.58 0.53 0.49 0.46 0.41 0.39 0.35 0.28 0.27 0.26 0.26 0.23 0.22 0.23 0.28 0.49 0.91 1.14 0.96 0.72 0.64 0.68 0.69 0.69 0.81 0.87
0.38 0.50 0.60 0.65 0.66 0.66 0.67 0.65 0.65 0.67 0.63 0.57 0.53 0.49 0.45 0.40 0.37 0.30 0.26 0.18 0.21 0.22 0.23 0.27 0.28 0.22 0.19 0.25 0.54 0.85 0.90 0.81 0.60 0.51 0.50 0.52 0.56 0.53
0.34 0.45 0.54 0.56 0.55 0.51 0.49 0.49 0.50 0.50 0.50 0.48 0.47 0.45 0.41 0.36 0.29 0.24 0.21 0.21 0.22 0.20 0.20 0.22 0.21 0.18 0.18 0.23 0.40 0.60 0.68 0.60 0.54 0.53 0.49 0.38 0.32 0.40
0.32 0.36 0.42 0.45 0.44 0.40 0.36 0.34 0.34 0.37 0.38 0.38 0.39 0.38 0.33 0.29 0.23 0.18 0.16 0.13 0.13 0.14 0.13 0.16 0.16 0.15 0.15 0.17 0.23 0.31 0.34 0.32 0.28 0.31 0.45 0.48 0.41 0.47